| time (UTC) | temp F | wind direction | speed MPH | gust MPH | rain 1hr in | rain 24hr in | rain mn in | humidity % | barometer mb |
| 20260506025614 | 56 | 254 | 4.0 | 13.0 | 0.00 | 0.00 | 0.00 | 100 | 948.3 |
| 20260506025512 | 57 | 252 | 4.0 | 13.0 | 0.00 | 0.00 | 0.00 | 100 | 948.5 |
| 20260506025308 | 56 | 234 | 3.0 | 13.0 | 0.00 | 0.00 | 0.00 | 100 | 948.4 |
| 20260506025106 | 57 | 221 | 2.0 | 13.0 | 0.00 | 0.00 | 0.00 | 100 | 948.4 |
| 20260506025005 | 56 | 216 | 2.0 | 13.0 | 0.00 | 0.00 | 0.00 | 100 | 948.4 |
| 20260506024903 | 56 | 210 | 2.0 | 8.0 | 0.00 | 0.00 | 0.00 | 100 | 948.4 |
| 20260506024700 | 57 | 217 | 2.0 | 7.0 | 0.00 | 0.00 | 0.00 | 100 | 948.5 |
| 20260506024456 | 57 | 218 | 2.0 | 7.0 | 0.00 | 0.00 | 0.00 | 100 | 948.4 |
| 20260506024356 | 57 | 227 | 2.0 | 7.0 | 0.00 | 0.00 | 0.00 | 100 | 948.3 |
| 20260506024254 | 57 | 211 | 2.0 | 13.0 | 0.00 | 0.00 | 0.00 | 100 | 948.4 |
| 20260506024051 | 57 | 212 | 2.0 | 13.0 | 0.00 | 0.00 | 0.00 | 100 | 948.2 |
| 20260506023847 | 57 | 207 | 2.0 | 13.0 | 0.00 | 0.00 | 0.00 | 100 | 948.3 |
| 20260506023746 | 57 | 201 | 2.0 | 16.0 | 0.00 | 0.00 | 0.00 | 100 | 948.3 |
| 20260506023644 | 57 | 205 | 2.0 | 16.0 | 0.00 | 0.00 | 0.00 | 100 | 948.4 |
| 20260506023442 | 57 | 201 | 2.0 | 16.0 | 0.00 | 0.00 | 0.00 | 100 | 948.4 |
| 20260506023238 | 57 | 227 | 2.0 | 7.0 | 0.00 | 0.00 | 0.00 | 100 | 948.4 |
| 20260506023138 | 57 | 222 | 2.0 | 8.0 | 0.00 | 0.00 | 0.00 | 100 | 948.4 |
| 20260506023035 | 57 | 202 | 2.0 | 13.0 | 0.00 | 0.00 | 0.00 | 100 | 948.5 |
| 20260506022832 | 57 | 178 | 3.0 | 13.0 | 0.00 | 0.00 | 0.00 | 100 | 948.4 |
| 20260506022629 | 57 | 174 | 2.0 | 10.0 | 0.00 | 0.00 | 0.00 | 100 | 948.4 |
| 20260506022528 | 57 | 0 | 1.0 | 5.0 | 0.00 | 0.00 | 0.00 | 100 | 948.5 |
| 20260506022426 | 58 | 0 | 1.0 | 5.0 | 0.00 | 0.00 | 0.00 | 100 | 948.5 |
| 20260506022222 | 58 | 246 | 2.0 | 8.0 | 0.00 | 0.00 | 0.00 | 100 | 948.4 |
| 20260506022019 | 58 | 265 | 2.0 | 8.0 | 0.00 | 0.00 | 0.00 | 100 | 948.3 |
| 20260506021919 | 58 | 235 | 2.0 | 8.0 | 0.00 | 0.00 | 0.00 | 100 | 948.6 |
| 20260506021816 | 58 | 244 | 2.0 | 8.0 | 0.00 | 0.00 | 0.00 | 100 | 948.5 |
| 20260506021614 | 58 | 187 | 1.0 | 6.0 | 0.00 | 0.00 | 0.00 | 100 | 948.5 |
| 20260506021411 | 58 | 128 | 2.0 | 6.0 | 0.00 | 0.00 | 0.00 | 100 | 948.4 |
| 20260506021310 | 58 | 130 | 2.0 | 6.0 | 0.00 | 0.00 | 0.00 | 100 | 948.4 |
| 20260506021208 | 58 | 135 | 2.0 | 6.0 | 0.00 | 0.00 | 0.00 | 100 | 948.4 |
| 20260506021004 | 58 | 296 | 2.0 | 5.0 | 0.00 | 0.00 | 0.00 | 100 | 948.4 |
| 20260506020801 | 58 | 0 | 2.0 | 5.0 | 0.00 | 0.00 | 0.00 | 100 | 948.4 |
| 20260506020700 | 59 | 0 | 2.0 | 5.0 | 0.00 | 0.00 | 0.00 | 100 | 948.4 |
| 20260506020558 | 59 | 227 | 2.0 | 7.0 | 0.00 | 0.00 | 0.00 | 100 | 948.5 |
| 20260506020354 | 59 | 178 | 4.0 | 15.0 | 0.00 | 0.00 | 0.00 | 100 | 948.4 |
| 20260506020152 | 59 | 166 | 6.0 | 15.0 | 0.00 | 0.00 | 0.00 | 100 | 948.4 |
| 20260506020051 | 59 | 167 | 6.0 | 15.0 | 0.00 | 0.00 | 0.00 | 100 | 948.3 |
| 20260506015949 | 59 | 170 | 6.0 | 15.0 | 0.00 | 0.00 | 0.00 | 100 | 948.2 |
| 20260506015746 | 59 | 173 | 5.0 | 13.0 | 0.00 | 0.00 | 0.00 | 100 | 948.4 |
| 20260506015543 | 59 | 176 | 5.0 | 14.0 | 0.00 | 0.00 | 0.00 | 100 | 948.3 |
| 20260506015442 | 59 | 176 | 4.0 | 14.0 | 0.00 | 0.00 | 0.00 | 100 | 948.2 |
| 20260506015340 | 59 | 176 | 4.0 | 14.0 | 0.00 | 0.00 | 0.00 | 100 | 948.2 |
| 20260506015137 | 59 | 200 | 2.0 | 8.0 | 0.00 | 0.00 | 0.00 | 100 | 948.2 |
| 20260506014933 | 59 | 181 | 3.0 | 10.0 | 0.00 | 0.00 | 0.00 | 100 | 948.2 |
| 20260506014833 | 59 | 182 | 3.0 | 10.0 | 0.00 | 0.00 | 0.00 | 100 | 948.3 |
| 20260506014730 | 59 | 171 | 4.0 | 12.0 | 0.00 | 0.00 | 0.00 | 100 | 948.4 |
| 20260506014528 | 59 | 173 | 3.0 | 12.0 | 0.00 | 0.00 | 0.00 | 100 | 948.3 |
| 20260506014325 | 59 | 170 | 5.0 | 21.0 | 0.00 | 0.00 | 0.00 | 100 | 948.4 |
| 20260506014224 | 59 | 167 | 4.0 | 21.0 | 0.00 | 0.00 | 0.00 | 100 | 948.2 |
| 20260506014121 | 59 | 171 | 4.0 | 21.0 | 0.00 | 0.00 | 0.00 | 100 | 948.2 |
| 20260506013918 | 59 | 180 | 3.0 | 15.0 | 0.00 | 0.00 | 0.00 | 100 | 948.3 |
| 20260506013715 | 59 | 200 | 3.0 | 15.0 | 0.00 | 0.00 | 0.00 | 100 | 948.3 |
| 20260506013615 | 59 | 195 | 3.0 | 15.0 | 0.00 | 0.00 | 0.00 | 100 | 948.3 |
| 20260506013512 | 59 | 213 | 2.0 | 12.0 | 0.00 | 0.00 | 0.00 | 100 | 948.4 |
| 20260506013310 | 59 | 186 | 3.0 | 12.0 | 0.00 | 0.00 | 0.00 | 100 | 948.1 |
| 20260506013106 | 59 | 184 | 4.0 | 14.0 | 0.00 | 0.00 | 0.00 | 100 | 948.1 |
| 20260506013006 | 59 | 187 | 4.0 | 14.0 | 0.00 | 0.00 | 0.00 | 100 | 948.1 |
| 20260506012904 | 59 | 184 | 4.0 | 12.0 | 0.00 | 0.00 | 0.00 | 100 | 948.1 |
| 20260506012701 | 59 | 196 | 4.0 | 16.0 | 0.00 | 0.00 | 0.00 | 100 | 948.1 |
| 20260506012458 | 59 | 199 | 4.0 | 16.0 | 0.00 | 0.00 | 0.00 | 100 | 948.0 |
| 20260506012357 | 59 | 192 | 5.0 | 22.0 | 0.00 | 0.00 | 0.00 | 100 | 947.8 |
| 20260506012255 | 59 | 189 | 5.0 | 22.0 | 0.00 | 0.00 | 0.00 | 100 | 947.8 |
| 20260506012051 | 59 | 182 | 4.0 | 22.0 | 0.00 | 0.00 | 0.00 | 100 | 948.0 |
| 20260506011848 | 59 | 192 | 4.0 | 15.0 | 0.00 | 0.00 | 0.00 | 100 | 947.8 |
| 20260506011748 | 59 | 197 | 3.0 | 15.0 | 0.00 | 0.00 | 0.00 | 100 | 947.8 |
| 20260506011646 | 59 | 198 | 4.0 | 15.0 | 0.00 | 0.00 | 0.00 | 100 | 947.9 |
| 20260506011443 | 60 | 187 | 4.0 | 13.0 | 0.00 | 0.00 | 0.00 | 100 | 947.9 |
| 20260506011240 | 60 | 190 | 4.0 | 13.0 | 0.00 | 0.00 | 0.00 | 100 | 947.9 |
| 20260506011140 | 60 | 192 | 4.0 | 14.0 | 0.00 | 0.00 | 0.00 | 100 | 947.9 |
| 20260506011038 | 60 | 196 | 4.0 | 16.0 | 0.00 | 0.00 | 0.00 | 100 | 947.9 |
| 20260506010835 | 60 | 190 | 6.0 | 19.0 | 0.00 | 0.00 | 0.00 | 100 | 947.9 |
| 20260506010631 | 60 | 191 | 4.0 | 19.0 | 0.00 | 0.00 | 0.00 | 100 | 948.0 |
| 20260506010531 | 60 | 198 | 4.0 | 16.0 | 0.00 | 0.00 | 0.00 | 100 | 948.0 |
| 20260506010429 | 60 | 193 | 4.0 | 20.0 | 0.00 | 0.00 | 0.00 | 100 | 947.9 |
| 20260506010226 | 60 | 187 | 5.0 | 20.0 | 0.00 | 0.00 | 0.00 | 100 | 948.0 |
| 20260506010023 | 59 | 188 | 5.0 | 20.0 | 0.00 | 0.00 | 0.00 | 100 | 948.0 |
| 20260506005922 | 59 | 191 | 4.0 | 17.0 | 0.00 | 0.00 | 0.00 | 100 | 947.9 |
| 20260506005820 | 59 | 190 | 4.0 | 17.0 | 0.00 | 0.00 | 0.00 | 100 | 948.0 |
| 20260506005617 | 59 | 202 | 3.0 | 13.0 | 0.00 | 0.00 | 0.00 | 100 | 948.1 |
| 20260506005413 | 59 | 187 | 3.0 | 16.0 | 0.00 | 0.00 | 0.00 | 100 | 948.0 |
| 20260506005312 | 60 | 188 | 4.0 | 16.0 | 0.00 | 0.00 | 0.00 | 100 | 948.0 |
| 20260506005210 | 60 | 191 | 4.0 | 16.0 | 0.00 | 0.00 | 0.00 | 100 | 948.0 |
| 20260506005006 | 60 | 182 | 5.0 | 16.0 | 0.00 | 0.00 | 0.00 | 100 | 948.1 |
| 20260506004803 | 60 | 177 | 4.0 | 16.0 | 0.00 | 0.00 | 0.00 | 100 | 948.1 |
| 20260506004703 | 60 | 179 | 3.0 | 16.0 | 0.00 | 0.00 | 0.00 | 100 | 948.2 |
| 20260506004600 | 60 | 194 | 3.0 | 13.0 | 0.00 | 0.00 | 0.00 | 100 | 948.2 |
| 20260506004357 | 60 | 206 | 3.0 | 19.0 | 0.00 | 0.00 | 0.00 | 100 | 948.1 |
| 20260506004153 | 60 | 202 | 3.0 | 19.0 | 0.00 | 0.00 | 0.00 | 100 | 948.2 |
| 20260506004053 | 60 | 210 | 3.0 | 13.0 | 0.00 | 0.00 | 0.00 | 100 | 948.1 |
| 20260506003855 | 60 | 195 | 3.0 | 12.0 | 0.00 | 0.00 | 0.00 | 100 | 948.3 |
| 20260506003652 | 60 | 191 | 4.0 | 16.0 | 0.00 | 0.00 | 0.00 | 100 | 948.2 |
| 20260506003552 | 60 | 191 | 4.0 | 17.0 | 0.00 | 0.00 | 0.00 | 100 | 948.2 |
| 20260506003450 | 60 | 192 | 4.0 | 17.0 | 0.00 | 0.00 | 0.00 | 100 | 948.1 |
| 20260506003246 | 60 | 186 | 4.0 | 17.0 | 0.00 | 0.00 | 0.00 | 100 | 948.0 |
| 20260506003043 | 60 | 188 | 3.0 | 14.0 | 0.00 | 0.00 | 0.00 | 100 | 948.2 |
| 20260506002942 | 60 | 193 | 4.0 | 14.0 | 0.00 | 0.00 | 0.00 | 100 | 948.1 |
| 20260506002840 | 60 | 183 | 4.0 | 15.0 | 0.00 | 0.00 | 0.00 | 100 | 948.1 |
| 20260506002636 | 60 | 178 | 4.0 | 15.0 | 0.00 | 0.00 | 0.00 | 100 | 948.2 |
| 20260506002433 | 60 | 184 | 5.0 | 18.0 | 0.00 | 0.00 | 0.00 | 100 | 948.1 |
| 20260506002319 | 61 | 186 | 4.0 | 18.0 | 0.00 | 0.00 | 0.00 | 100 | 948.1 |
| 20260506002217 | 61 | 183 | 5.0 | 18.0 | 0.00 | 0.00 | 0.00 | 100 | 948.0 |
| 20260506002014 | 61 | 185 | 5.0 | 20.0 | 0.00 | 0.00 | 0.00 | 100 | 948.0 |
| 20260506001810 | 61 | 173 | 7.0 | 23.0 | 0.00 | 0.00 | 0.00 | 100 | 948.1 |
| 20260506001710 | 61 | 170 | 6.0 | 23.0 | 0.00 | 0.00 | 0.00 | 100 | 948.1 |
| 20260506001607 | 61 | 171 | 7.0 | 23.0 | 0.00 | 0.00 | 0.00 | 100 | 948.1 |
| 20260506001403 | 61 | 172 | 6.0 | 20.0 | 0.00 | 0.00 | 0.00 | 100 | 948.2 |
| 20260506001201 | 61 | 175 | 6.0 | 22.0 | 0.00 | 0.00 | 0.00 | 100 | 948.2 |
| 20260506001100 | 61 | 178 | 4.0 | 22.0 | 0.00 | 0.00 | 0.00 | 100 | 948.2 |
| 20260506000957 | 61 | 184 | 4.0 | 22.0 | 0.00 | 0.00 | 0.00 | 100 | 948.1 |
| 20260506000754 | 61 | 179 | 5.0 | 17.0 | 0.00 | 0.00 | 0.00 | 100 | 948.2 |
| 20260506000551 | 61 | 176 | 5.0 | 17.0 | 0.00 | 0.00 | 0.00 | 100 | 948.3 |
| 20260506000450 | 61 | 174 | 4.0 | 17.0 | 0.00 | 0.00 | 0.00 | 100 | 948.2 |
| 20260506000348 | 61 | 177 | 4.0 | 17.0 | 0.00 | 0.00 | 0.00 | 100 | 948.1 |
| 20260506000145 | 61 | 178 | 4.0 | 16.0 | 0.00 | 0.00 | 0.00 | 100 | 948.2 |
| 20260505235941 | 61 | 178 | 4.0 | 14.0 | 0.00 | 0.00 | 0.00 | 100 | 948.3 |
| 20260505235841 | 61 | 175 | 4.0 | 14.0 | 0.00 | 0.00 | 0.00 | 100 | 948.3 |
| 20260505235739 | 61 | 176 | 4.0 | 19.0 | 0.00 | 0.00 | 0.00 | 100 | 948.3 |
| 20260505235535 | 61 | 183 | 4.0 | 19.0 | 0.00 | 0.00 | 0.00 | 100 | 948.2 |
| 20260505235332 | 61 | 185 | 5.0 | 16.0 | 0.00 | 0.00 | 0.00 | 100 | 948.3 |
| 20260505235232 | 62 | 174 | 6.0 | 19.0 | 0.00 | 0.00 | 0.00 | 100 | 948.3 |
| 20260505235130 | 62 | 174 | 6.0 | 19.0 | 0.00 | 0.00 | 0.00 | 100 | 948.4 |
| 20260505234927 | 62 | 174 | 6.0 | 19.0 | 0.00 | 0.00 | 0.00 | 100 | 948.3 |
| 20260505234724 | 62 | 174 | 6.0 | 17.0 | 0.00 | 0.00 | 0.00 | 100 | 948.4 |
| 20260505234623 | 62 | 171 | 7.0 | 17.0 | 0.00 | 0.00 | 0.00 | 100 | 948.3 |
| 20260505234520 | 62 | 171 | 5.0 | 11.0 | 0.00 | 0.00 | 0.00 | 100 | 948.5 |
| 20260505234317 | 62 | 176 | 4.0 | 12.0 | 0.00 | 0.00 | 0.00 | 100 | 948.4 |
| 20260505234114 | 62 | 164 | 7.0 | 22.0 | 0.00 | 0.00 | 0.00 | 100 | 948.5 |
| 20260505234013 | 62 | 163 | 7.0 | 22.0 | 0.00 | 0.00 | 0.00 | 100 | 948.4 |
| 20260505233910 | 62 | 162 | 8.0 | 22.0 | 0.00 | 0.00 | 0.00 | 100 | 948.5 |
| 20260505233707 | 61 | 163 | 5.0 | 15.0 | 0.00 | 0.00 | 0.00 | 100 | 948.5 |
| 20260505233505 | 60 | 169 | 4.0 | 14.0 | 0.00 | 0.00 | 0.00 | 100 | 948.5 |
| 20260505233404 | 60 | 186 | 2.0 | 6.0 | 0.00 | 0.00 | 0.00 | 100 | 948.6 |
| 20260505233302 | 60 | 216 | 2.0 | 7.0 | 0.00 | 0.00 | 0.00 | 100 | 948.5 |
| 20260505233059 | 59 | 54 | 4.0 | 8.0 | 0.00 | 0.00 | 0.00 | 100 | 948.6 |
| 20260505232856 | 59 | 95 | 4.0 | 8.0 | 0.00 | 0.00 | 0.00 | 100 | 948.5 |
| 20260505232755 | 60 | 122 | 4.0 | 8.0 | 0.00 | 0.00 | 0.00 | 100 | 948.6 |
| 20260505232652 | 60 | 137 | 3.0 | 10.0 | 0.00 | 0.00 | 0.00 | 100 | 948.6 |
| 20260505232449 | 61 | 147 | 4.0 | 12.0 | 0.00 | 0.00 | 0.00 | 100 | 948.7 |
| 20260505232246 | 61 | 163 | 4.0 | 12.0 | 0.00 | 0.00 | 0.00 | 100 | 948.6 |
| 20260505232145 | 60 | 177 | 4.0 | 12.0 | 0.00 | 0.00 | 0.00 | 100 | 948.5 |
| 20260505232043 | 60 | 164 | 4.0 | 12.0 | 0.00 | 0.00 | 0.00 | 100 | 948.8 |
| 20260505231839 | 60 | 149 | 4.0 | 11.0 | 0.00 | 0.00 | 0.00 | 100 | 948.6 |
| 20260505231636 | 58 | 235 | 3.0 | 9.0 | 0.00 | 0.00 | 0.00 | 100 | 948.6 |
| 20260505231535 | 57 | 270 | 3.0 | 7.0 | 0.00 | 0.00 | 0.00 | 100 | 948.7 |
| 20260505231433 | 57 | 324 | 4.0 | 7.0 | 0.00 | 0.00 | 0.00 | 100 | 948.7 |
| 20260505231229 | 57 | 355 | 4.0 | 6.0 | 0.00 | 0.00 | 0.00 | 100 | 948.5 |
| 20260505231026 | 57 | 352 | 4.0 | 8.0 | 0.00 | 0.00 | 0.00 | 100 | 948.6 |
| 20260505230925 | 57 | 346 | 6.0 | 13.0 | 0.00 | 0.00 | 0.00 | 100 | 948.7 |
| 20260505230823 | 58 | 344 | 6.0 | 13.0 | 0.00 | 0.00 | 0.00 | 100 | 948.6 |
| 20260505230620 | 58 | 328 | 5.0 | 13.0 | 0.00 | 0.00 | 0.00 | 100 | 948.5 |
| 20260505230416 | 59 | 286 | 4.0 | 12.0 | 0.00 | 0.00 | 0.00 | 100 | 948.5 |
| 20260505230315 | 59 | 192 | 5.0 | 14.0 | 0.00 | 0.00 | 0.00 | 100 | 948.5 |
| 20260505230213 | 60 | 181 | 6.0 | 14.0 | 0.00 | 0.00 | 0.00 | 100 | 948.6 |
| 20260505230011 | 62 | 176 | 5.0 | 14.0 | 0.00 | 0.00 | 0.00 | 100 | 948.4 |
| 20260505225807 | 61 | 217 | 4.0 | 12.0 | 0.00 | 0.00 | 0.00 | 100 | 948.5 |
| 20260505225706 | 61 | 246 | 5.0 | 15.0 | 0.00 | 0.00 | 0.00 | 100 | 948.4 |
| 20260505225604 | 60 | 258 | 5.0 | 15.0 | 0.00 | 0.00 | 0.00 | 100 | 948.4 |
| 20260505225400 | 60 | 262 | 5.0 | 15.0 | 0.00 | 0.00 | 0.00 | 100 | 948.5 |
| 20260505225157 | 60 | 166 | 3.0 | 8.0 | 0.00 | 0.00 | 0.00 | 100 | 948.6 |
| 20260505225057 | 60 | 163 | 2.0 | 8.0 | 0.00 | 0.00 | 0.00 | 100 | 948.6 |
| 20260505224955 | 60 | 187 | 2.0 | 8.0 | 0.00 | 0.00 | 0.00 | 100 | 948.5 |
| 20260505224752 | 60 | 173 | 2.0 | 8.0 | 0.00 | 0.00 | 0.00 | 100 | 948.5 |
| 20260505224549 | 59 | 271 | 3.0 | 9.0 | 0.00 | 0.00 | 0.00 | 100 | 948.6 |
| 20260505224448 | 59 | 292 | 3.0 | 9.0 | 0.00 | 0.00 | 0.00 | 100 | 948.5 |
| 20260505224345 | 59 | 309 | 4.0 | 9.0 | 0.00 | 0.00 | 0.00 | 100 | 948.5 |
| 20260505224142 | 57 | 341 | 4.0 | 9.0 | 0.00 | 0.00 | 0.00 | 100 | 948.5 |
| 20260505223939 | 57 | 343 | 4.0 | 7.0 | 0.00 | 0.00 | 0.00 | 100 | 948.6 |
| 20260505223838 | 57 | 345 | 4.0 | 7.0 | 0.00 | 0.00 | 0.00 | 100 | 948.5 |
| 20260505223736 | 57 | 351 | 5.0 | 7.0 | 0.00 | 0.00 | 0.00 | 100 | 948.6 |
| 20260505223532 | 57 | 352 | 5.0 | 7.0 | 0.00 | 0.00 | 0.00 | 100 | 948.7 |
| 20260505223329 | 57 | 342 | 4.0 | 6.0 | 0.00 | 0.00 | 0.00 | 100 | 948.6 |
| 20260505223229 | 57 | 330 | 3.0 | 6.0 | 0.00 | 0.00 | 0.00 | 100 | 948.6 |
| 20260505223127 | 57 | 332 | 2.0 | 5.0 | 0.00 | 0.00 | 0.00 | 100 | 948.7 |
| 20260505222924 | 57 | 354 | 2.0 | 4.0 | 0.00 | 0.00 | 0.00 | 100 | 948.6 |
| 20260505222722 | 57 | 4 | 2.0 | 4.0 | 0.00 | 0.00 | 0.00 | 100 | 948.5 |
| 20260505222621 | 57 | 8 | 2.0 | 3.0 | 0.00 | 0.00 | 0.00 | 100 | 948.6 |
| 20260505222519 | 57 | 45 | 2.0 | 3.0 | 0.00 | 0.00 | 0.00 | 100 | 948.6 |
| 20260505222316 | 57 | 55 | 2.0 | 3.0 | 0.00 | 0.00 | 0.00 | 100 | 948.7 |
| 20260505222113 | 57 | 56 | 1.0 | 3.0 | 0.00 | 0.00 | 0.00 | 100 | 948.7 |
| 20260505222012 | 57 | 73 | 1.0 | 4.0 | 0.00 | 0.00 | 0.00 | 100 | 948.9 |
| 20260505221909 | 57 | 83 | 1.0 | 4.0 | 0.00 | 0.00 | 0.00 | 100 | 948.8 |
| 20260505221707 | 58 | 75 | 3.0 | 5.0 | 0.00 | 0.00 | 0.00 | 100 | 948.9 |
| 20260505221503 | 58 | 75 | 3.0 | 5.0 | 0.00 | 0.00 | 0.00 | 100 | 948.9 |
| 20260505221403 | 58 | 82 | 3.0 | 5.0 | 0.00 | 0.00 | 0.00 | 100 | 948.9 |
| 20260505221300 | 58 | 83 | 3.0 | 6.0 | 0.00 | 0.00 | 0.00 | 100 | 948.9 |
| 20260505221058 | 58 | 78 | 4.0 | 6.0 | 0.00 | 0.00 | 0.00 | 100 | 948.9 |
| 20260505220855 | 58 | 79 | 3.0 | 6.0 | 0.00 | 0.00 | 0.00 | 100 | 949.1 |
| 20260505220754 | 58 | 76 | 3.0 | 4.0 | 0.00 | 0.00 | 0.00 | 100 | 949.0 |
| 20260505220651 | 58 | 72 | 2.0 | 4.0 | 0.00 | 0.00 | 0.00 | 100 | 949.1 |
| 20260505220448 | 58 | 64 | 1.0 | 3.0 | 0.00 | 0.00 | 0.00 | 100 | 949.1 |
| 20260505220245 | 58 | 353 | 1.0 | 3.0 | 0.00 | 0.00 | 0.00 | 100 | 949.0 |
| 20260505220145 | 58 | 349 | 1.0 | 3.0 | 0.00 | 0.00 | 0.00 | 100 | 949.1 |
| 20260505220043 | 58 | 357 | 2.0 | 3.0 | 0.00 | 0.00 | 0.00 | 100 | 949.2 |
| 20260505215840 | 59 | 54 | 3.0 | 5.0 | 0.00 | 0.00 | 0.00 | 100 | 949.1 |
| 20260505215637 | 59 | 62 | 4.0 | 5.0 | 0.00 | 0.00 | 0.00 | 100 | 949.1 |
| 20260505215536 | 59 | 59 | 4.0 | 5.0 | 0.00 | 0.00 | 0.00 | 100 | 949.3 |
| 20260505215435 | 59 | 55 | 4.0 | 5.0 | 0.00 | 0.00 | 0.00 | 100 | 949.2 |
| 20260505215231 | 59 | 63 | 3.0 | 5.0 | 0.00 | 0.00 | 0.00 | 100 | 949.4 |
| 20260505215029 | 60 | 97 | 2.0 | 5.0 | 0.00 | 0.00 | 0.00 | 100 | 949.4 |
| 20260505214928 | 60 | 0 | 2.0 | 5.0 | 0.00 | 0.00 | 0.00 | 100 | 949.3 |
| 20260505214825 | 60 | 53 | 3.0 | 6.0 | 0.00 | 0.00 | 0.00 | 100 | 949.4 |
| 20260505214622 | 60 | 51 | 3.0 | 6.0 | 0.00 | 0.00 | 0.00 | 100 | 949.3 |
| 20260505214405 | 61 | 86 | 3.0 | 6.0 | 0.00 | 0.00 | 0.00 | 100 | 949.2 |
| 20260505214305 | 62 | 121 | 3.0 | 6.0 | 0.00 | 0.00 | 0.00 | 100 | 949.3 |
| 20260505214202 | 62 | 129 | 4.0 | 6.0 | 0.00 | 0.00 | 0.00 | 100 | 949.3 |
| 20260505213959 | 63 | 154 | 4.0 | 15.0 | 0.00 | 0.00 | 0.00 | 100 | 949.4 |
| 20260505213755 | 63 | 157 | 5.0 | 15.0 | 0.00 | 0.00 | 0.00 | 100 | 949.3 |
| 20260505213655 | 63 | 158 | 5.0 | 15.0 | 0.00 | 0.00 | 0.00 | 100 | 949.3 |
| 20260505213553 | 63 | 157 | 6.0 | 14.0 | 0.00 | 0.00 | 0.00 | 100 | 949.3 |
| 20260505213350 | 63 | 155 | 6.0 | 15.0 | 0.00 | 0.00 | 0.00 | 100 | 949.4 |
| 20260505213146 | 63 | 163 | 6.0 | 16.0 | 0.00 | 0.00 | 0.00 | 100 | 949.3 |
| 20260505213046 | 63 | 165 | 6.0 | 16.0 | 0.00 | 0.00 | 0.00 | 100 | 949.5 |
| 20260505212943 | 63 | 168 | 6.0 | 16.0 | 0.00 | 0.00 | 0.00 | 100 | 949.5 |
| 20260505212740 | 63 | 165 | 4.0 | 14.0 | 0.00 | 0.00 | 0.00 | 100 | 949.4 |
| 20260505212537 | 63 | 173 | 3.0 | 14.0 | 0.00 | 0.00 | 0.00 | 100 | 949.6 |
| 20260505212437 | 62 | 172 | 3.0 | 9.0 | 0.00 | 0.00 | 0.00 | 100 | 949.6 |
| 20260505212334 | 63 | 170 | 4.0 | 10.0 | 0.00 | 0.00 | 0.00 | 100 | 949.5 |
| 20260505212132 | 63 | 162 | 4.0 | 14.0 | 0.00 | 0.00 | 0.00 | 100 | 949.5 |
| 20260505211928 | 63 | 173 | 3.0 | 13.0 | 0.00 | 0.00 | 0.00 | 100 | 949.6 |
| 20260505211827 | 63 | 180 | 3.0 | 10.0 | 0.00 | 0.00 | 0.00 | 100 | 949.6 |
| 20260505211724 | 63 | 184 | 3.0 | 10.0 | 0.00 | 0.00 | 0.00 | 100 | 949.5 |
| 20260505211522 | 63 | 179 | 3.0 | 10.0 | 0.00 | 0.00 | 0.00 | 100 | 949.6 |
| 20260505211318 | 63 | 176 | 5.0 | 14.0 | 0.00 | 0.00 | 0.00 | 100 | 949.6 |
| 20260505211218 | 63 | 173 | 6.0 | 14.0 | 0.00 | 0.00 | 0.00 | 100 | 949.6 |
| 20260505211115 | 63 | 173 | 5.0 | 14.0 | 0.00 | 0.00 | 0.00 | 100 | 949.7 |
| 20260505210912 | 63 | 178 | 4.0 | 14.0 | 0.00 | 0.00 | 0.00 | 100 | 949.6 |
| 20260505210709 | 63 | 177 | 4.0 | 17.0 | 0.00 | 0.00 | 0.00 | 100 | 949.7 |
| 20260505210609 | 63 | 178 | 4.0 | 17.0 | 0.00 | 0.00 | 0.00 | 100 | 949.8 |
| 20260505210506 | 63 | 177 | 4.0 | 17.0 | 0.00 | 0.00 | 0.00 | 100 | 949.7 |
| 20260505210302 | 63 | 189 | 3.0 | 14.0 | 0.00 | 0.00 | 0.00 | 100 | 949.6 |
| 20260505210059 | 63 | 182 | 4.0 | 15.0 | 0.00 | 0.00 | 0.00 | 100 | 949.8 |
| 20260505205959 | 63 | 184 | 4.0 | 15.0 | 0.00 | 0.00 | 0.00 | 100 | 949.7 |
| 20260505205856 | 63 | 180 | 4.0 | 15.0 | 0.00 | 0.00 | 0.00 | 100 | 949.7 |
| 20260505205653 | 63 | 185 | 3.0 | 11.0 | 0.00 | 0.00 | 0.00 | 100 | 949.8 |
| 20260505205450 | 63 | 191 | 4.0 | 16.0 | 0.00 | 0.00 | 0.00 | 100 | 949.8 |
| 20260505205349 | 63 | 169 | 4.0 | 16.0 | 0.00 | 0.00 | 0.00 | 100 | 949.8 |
| 20260505205247 | 63 | 169 | 4.0 | 16.0 | 0.00 | 0.00 | 0.00 | 100 | 949.8 |
| 20260505205045 | 63 | 172 | 2.0 | 13.0 | 0.00 | 0.00 | 0.00 | 100 | 949.7 |
| 20260505204842 | 63 | 180 | 3.0 | 11.0 | 0.00 | 0.00 | 0.00 | 100 | 949.8 |
| 20260505204741 | 63 | 171 | 3.0 | 11.0 | 0.00 | 0.00 | 0.00 | 100 | 949.8 |
| 20260505204638 | 63 | 173 | 3.0 | 11.0 | 0.00 | 0.00 | 0.00 | 100 | 949.8 |
| 20260505204435 | 63 | 186 | 2.0 | 7.0 | 0.00 | 0.00 | 0.00 | 100 | 949.8 |
| 20260505204232 | 63 | 205 | 2.0 | 7.0 | 0.00 | 0.00 | 0.00 | 100 | 949.8 |
| 20260505204131 | 63 | 190 | 2.0 | 10.0 | 0.00 | 0.00 | 0.00 | 100 | 949.8 |
| 20260505204029 | 63 | 191 | 3.0 | 10.0 | 0.00 | 0.00 | 0.00 | 100 | 949.8 |
| 20260505203826 | 64 | 188 | 3.0 | 13.0 | 0.00 | 0.00 | 0.00 | 100 | 949.8 |
| 20260505203623 | 63 | 189 | 2.0 | 13.0 | 0.00 | 0.00 | 0.00 | 100 | 949.8 |
| 20260505203522 | 63 | 189 | 2.0 | 6.0 | 0.00 | 0.00 | 0.00 | 100 | 949.7 |
| 20260505203419 | 63 | 187 | 2.0 | 9.0 | 0.00 | 0.00 | 0.00 | 100 | 949.8 |
| 20260505203216 | 64 | 177 | 4.0 | 15.0 | 0.00 | 0.00 | 0.00 | 100 | 949.7 |
| 20260505203014 | 64 | 176 | 5.0 | 15.0 | 0.00 | 0.00 | 0.00 | 100 | 949.9 |
| 20260505202913 | 64 | 180 | 3.0 | 13.0 | 0.00 | 0.00 | 0.00 | 100 | 949.8 |
| 20260505202810 | 64 | 182 | 2.0 | 13.0 | 0.00 | 0.00 | 0.00 | 100 | 949.9 |
| 20260505202607 | 64 | 172 | 2.0 | 12.0 | 0.00 | 0.00 | 0.00 | 100 | 949.8 |
| 20260505202404 | 64 | 178 | 3.0 | 12.0 | 0.00 | 0.00 | 0.00 | 100 | 949.8 |
| 20260505202306 | 64 | 183 | 3.0 | 10.0 | 0.00 | 0.00 | 0.00 | 100 | 949.8 |
| 20260505202202 | 64 | 183 | 3.0 | 10.0 | 0.00 | 0.00 | 0.00 | 100 | 949.9 |
| 20260505201958 | 64 | 174 | 4.0 | 10.0 | 0.00 | 0.00 | 0.00 | 100 | 949.8 |
| 20260505201755 | 64 | 173 | 4.0 | 10.0 | 0.00 | 0.00 | 0.00 | 100 | 949.8 |
| 20260505201655 | 64 | 174 | 3.0 | 10.0 | 0.00 | 0.00 | 0.00 | 100 | 949.9 |
| 20260505201552 | 64 | 177 | 3.0 | 10.0 | 0.00 | 0.00 | 0.00 | 100 | 949.9 |
| 20260505201350 | 64 | 178 | 3.0 | 9.0 | 0.00 | 0.00 | 0.00 | 100 | 949.9 |
| 20260505201146 | 65 | 177 | 4.0 | 13.0 | 0.00 | 0.00 | 0.00 | 100 | 949.9 |
| 20260505201046 | 65 | 179 | 4.0 | 13.0 | 0.00 | 0.00 | 0.00 | 100 | 949.9 |
| 20260505200943 | 65 | 174 | 6.0 | 14.0 | 0.00 | 0.00 | 0.00 | 100 | 949.9 |
| 20260505200741 | 65 | 173 | 6.0 | 14.0 | 0.00 | 0.00 | 0.00 | 100 | 949.9 |
| 20260505200538 | 65 | 171 | 4.0 | 13.0 | 0.00 | 0.00 | 0.00 | 100 | 949.9 |
| 20260505200438 | 65 | 175 | 4.0 | 13.0 | 0.00 | 0.00 | 0.00 | 100 | 949.9 |
| 20260505200336 | 65 | 173 | 4.0 | 13.0 | 0.00 | 0.00 | 0.00 | 100 | 949.9 |
| 20260505200133 | 65 | 170 | 5.0 | 14.0 | 0.00 | 0.00 | 0.00 | 100 | 949.9 |
| 20260505195931 | 65 | 171 | 5.0 | 14.0 | 0.00 | 0.00 | 0.00 | 100 | 950.0 |
| 20260505195830 | 65 | 182 | 4.0 | 14.0 | 0.00 | 0.00 | 0.00 | 100 | 949.9 |
| 20260505195727 | 65 | 183 | 3.0 | 12.0 | 0.00 | 0.00 | 0.00 | 100 | 949.9 |
| 20260505195525 | 65 | 173 | 4.0 | 12.0 | 0.00 | 0.00 | 0.00 | 100 | 949.8 |
| 20260505195321 | 65 | 173 | 4.0 | 11.0 | 0.00 | 0.00 | 0.00 | 100 | 949.8 |
| 20260505195220 | 65 | 176 | 4.0 | 11.0 | 0.00 | 0.00 | 0.00 | 100 | 950.0 |
| 20260505195118 | 64 | 184 | 2.0 | 11.0 | 0.00 | 0.00 | 0.00 | 100 | 950.0 |
| 20260505194914 | 64 | 187 | 2.0 | 9.0 | 0.00 | 0.00 | 0.00 | 100 | 949.9 |
| 20260505194712 | 64 | 196 | 1.0 | 9.0 | 0.00 | 0.00 | 0.00 | 100 | 949.9 |
| 20260505194611 | 64 | 0 | 1.0 | 4.0 | 0.00 | 0.00 | 0.00 | 100 | 950.0 |
| 20260505194508 | 64 | 0 | 1.0 | 4.0 | 0.00 | 0.00 | 0.00 | 100 | 950.0 |
| 20260505194305 | 65 | 204 | 2.0 | 9.0 | 0.00 | 0.00 | 0.00 | 100 | 949.9 |
| 20260505194102 | 65 | 200 | 2.0 | 9.0 | 0.00 | 0.00 | 0.00 | 100 | 950.0 |
| 20260505194002 | 65 | 194 | 2.0 | 9.0 | 0.00 | 0.00 | 0.00 | 100 | 949.9 |
| 20260505193859 | 65 | 195 | 2.0 | 7.0 | 0.00 | 0.00 | 0.00 | 100 | 950.0 |
| 20260505193656 | 65 | 190 | 2.0 | 14.0 | 0.00 | 0.00 | 0.00 | 100 | 949.9 |
| 20260505193453 | 65 | 193 | 2.0 | 14.0 | 0.00 | 0.00 | 0.00 | 100 | 949.8 |
| 20260505193353 | 65 | 200 | 2.0 | 6.0 | 0.00 | 0.00 | 0.00 | 100 | 949.9 |
| 20260505193251 | 65 | 191 | 2.0 | 6.0 | 0.00 | 0.00 | 0.00 | 100 | 949.9 |
| 20260505193048 | 65 | 180 | 2.0 | 6.0 | 0.00 | 0.00 | 0.00 | 100 | 949.9 |
| 20260505192844 | 66 | 175 | 3.0 | 11.0 | 0.00 | 0.00 | 0.00 | 100 | 949.9 |
| 20260505192743 | 66 | 176 | 3.0 | 11.0 | 0.00 | 0.00 | 0.00 | 100 | 949.9 |
| 20260505192641 | 66 | 178 | 3.0 | 11.0 | 0.00 | 0.00 | 0.00 | 100 | 949.9 |
| 20260505192438 | 66 | 215 | 3.0 | 8.0 | 0.00 | 0.00 | 0.00 | 100 | 950.0 |
| 20260505192235 | 66 | 197 | 3.0 | 16.0 | 0.00 | 0.00 | 0.00 | 100 | 950.0 |
| 20260505192134 | 66 | 191 | 4.0 | 16.0 | 0.00 | 0.00 | 0.00 | 100 | 950.0 |
| 20260505192032 | 66 | 177 | 4.0 | 16.0 | 0.00 | 0.00 | 0.00 | 100 | 949.9 |
| 20260505191829 | 66 | 174 | 4.0 | 11.0 | 0.00 | 0.00 | 0.00 | 100 | 950.0 |
| 20260505191625 | 66 | 173 | 3.0 | 10.0 | 0.00 | 0.00 | 0.00 | 100 | 949.9 |
| 20260505191524 | 66 | 175 | 3.0 | 11.0 | 0.00 | 0.00 | 0.00 | 100 | 950.1 |
| 20260505191422 | 66 | 183 | 3.0 | 11.0 | 0.00 | 0.00 | 0.00 | 100 | 950.1 |
| 20260505191219 | 66 | 181 | 3.0 | 13.0 | 0.00 | 0.00 | 0.00 | 100 | 950.0 |
| 20260505191016 | 66 | 188 | 3.0 | 13.0 | 0.00 | 0.00 | 0.00 | 100 | 950.0 |
| 20260505190915 | 65 | 191 | 2.0 | 13.0 | 0.00 | 0.00 | 0.00 | 100 | 950.0 |
| 20260505190812 | 65 | 195 | 2.0 | 9.0 | 0.00 | 0.00 | 0.00 | 100 | 950.1 |
| 20260505190608 | 65 | 209 | 1.0 | 9.0 | 0.00 | 0.00 | 0.00 | 100 | 950.0 |
| 20260505190355 | 65 | 177 | 2.0 | 8.0 | 0.00 | 0.00 | 0.00 | 100 | 950.1 |
| 20260505190255 | 66 | 174 | 2.0 | 8.0 | 0.00 | 0.00 | 0.00 | 100 | 950.1 |
| 20260505190152 | 66 | 174 | 2.0 | 8.0 | 0.00 | 0.00 | 0.00 | 100 | 950.1 |
| 20260505185949 | 65 | 174 | 1.0 | 5.0 | 0.00 | 0.00 | 0.00 | 100 | 950.0 |
| 20260505185746 | 66 | 0 | 1.0 | 6.0 | 0.00 | 0.00 | 0.00 | 100 | 950.0 |
| 20260505185645 | 66 | 0 | 2.0 | 6.0 | 0.00 | 0.00 | 0.00 | 100 | 950.0 |
| 20260505185543 | 66 | 204 | 2.0 | 8.0 | 0.00 | 0.00 | 0.00 | 100 | 950.0 |
| 20260505185339 | 65 | 226 | 2.0 | 8.0 | 0.00 | 0.00 | 0.00 | 100 | 950.0 |
| 20260505185136 | 65 | 205 | 2.0 | 6.0 | 0.00 | 0.00 | 0.00 | 100 | 950.0 |
| 20260505185036 | 66 | 209 | 2.0 | 6.0 | 0.00 | 0.00 | 0.00 | 100 | 949.9 |
| 20260505184934 | 66 | 190 | 2.0 | 6.0 | 0.00 | 0.00 | 0.00 | 100 | 950.0 |
| 20260505184731 | 66 | 0 | 1.0 | 3.0 | 0.00 | 0.00 | 0.00 | 100 | 950.0 |
| 20260505184528 | 66 | 186 | 2.0 | 11.0 | 0.00 | 0.00 | 0.00 | 100 | 950.0 |
| 20260505184427 | 66 | 192 | 2.0 | 11.0 | 0.00 | 0.00 | 0.00 | 100 | 950.0 |
| 20260505184325 | 66 | 195 | 2.0 | 11.0 | 0.00 | 0.00 | 0.00 | 100 | 950.0 |
| 20260505184122 | 66 | 215 | 2.0 | 6.0 | 0.00 | 0.00 | 0.00 | 100 | 950.0 |
| 20260505183919 | 66 | 182 | 2.0 | 7.0 | 0.00 | 0.00 | 0.00 | 100 | 949.9 |
| 20260505183818 | 66 | 173 | 3.0 | 9.0 | 0.00 | 0.00 | 0.00 | 100 | 949.8 |
| 20260505183716 | 66 | 178 | 3.0 | 10.0 | 0.00 | 0.00 | 0.00 | 100 | 949.8 |
| 20260505183513 | 66 | 188 | 2.0 | 11.0 | 0.00 | 0.00 | 0.00 | 100 | 949.8 |
| 20260505183310 | 66 | 188 | 2.0 | 16.0 | 0.00 | 0.00 | 0.00 | 100 | 949.8 |
| 20260505183209 | 67 | 191 | 2.0 | 16.0 | 0.00 | 0.00 | 0.00 | 100 | 949.8 |
| 20260505183107 | 67 | 185 | 3.0 | 16.0 | 0.00 | 0.00 | 0.00 | 100 | 949.8 |
| 20260505182903 | 66 | 194 | 2.0 | 10.0 | 0.00 | 0.00 | 0.00 | 100 | 949.8 |
| 20260505182701 | 66 | 194 | 1.0 | 10.0 | 0.00 | 0.00 | 0.00 | 100 | 949.8 |
| 20260505182600 | 66 | 204 | 1.0 | 6.0 | 0.00 | 0.00 | 0.00 | 100 | 949.9 |
| 20260505182457 | 66 | 198 | 1.0 | 8.0 | 0.00 | 0.00 | 0.00 | 100 | 949.9 |
| 20260505182254 | 67 | 192 | 2.0 | 8.0 | 0.00 | 0.00 | 0.00 | 100 | 949.9 |
| 20260505182051 | 67 | 202 | 2.0 | 8.0 | 0.00 | 0.00 | 0.00 | 100 | 949.9 |
| 20260505181950 | 67 | 206 | 2.0 | 9.0 | 0.00 | 0.00 | 0.00 | 100 | 949.9 |
| 20260505181848 | 67 | 201 | 2.0 | 9.0 | 0.00 | 0.00 | 0.00 | 100 | 949.8 |
| 20260505181644 | 67 | 194 | 2.0 | 9.0 | 0.00 | 0.00 | 0.00 | 100 | 949.9 |
| 20260505181441 | 67 | 186 | 2.0 | 9.0 | 0.00 | 0.00 | 0.00 | 100 | 949.9 |
| 20260505181341 | 67 | 174 | 3.0 | 9.0 | 0.00 | 0.00 | 0.00 | 100 | 949.9 |
| 20260505181239 | 67 | 176 | 3.0 | 9.0 | 0.00 | 0.00 | 0.00 | 100 | 949.9 |
| 20260505181036 | 67 | 173 | 3.0 | 9.0 | 0.00 | 0.00 | 0.00 | 100 | 949.8 |
| 20260505180833 | 67 | 184 | 2.0 | 14.0 | 0.00 | 0.00 | 0.00 | 100 | 949.8 |
| 20260505180732 | 67 | 183 | 3.0 | 14.0 | 0.00 | 0.00 | 0.00 | 100 | 949.8 |
| 20260505180629 | 68 | 178 | 3.0 | 14.0 | 0.00 | 0.00 | 0.00 | 100 | 949.8 |
| 20260505180426 | 68 | 174 | 4.0 | 14.0 | 0.00 | 0.00 | 0.00 | 100 | 949.9 |
| 20260505180223 | 68 | 174 | 4.0 | 15.0 | 0.00 | 0.00 | 0.00 | 100 | 949.8 |
| 20260505180122 | 68 | 178 | 4.0 | 15.0 | 0.00 | 0.00 | 0.00 | 100 | 949.8 |
| 20260505180020 | 68 | 179 | 4.0 | 15.0 | 0.00 | 0.00 | 0.00 | 100 | 949.8 |
| 20260505175818 | 68 | 188 | 4.0 | 12.0 | 0.00 | 0.00 | 0.00 | 100 | 949.8 |
| 20260505175614 | 68 | 196 | 3.0 | 12.0 | 0.00 | 0.00 | 0.00 | 100 | 949.9 |
| 20260505175514 | 68 | 195 | 2.0 | 11.0 | 0.00 | 0.00 | 0.00 | 100 | 949.8 |
| 20260505175412 | 68 | 208 | 2.0 | 11.0 | 0.00 | 0.00 | 0.00 | 100 | 949.9 |
| 20260505175208 | 68 | 182 | 2.0 | 9.0 | 0.00 | 0.00 | 0.00 | 100 | 949.9 |
| 20260505175005 | 68 | 179 | 3.0 | 15.0 | 0.00 | 0.00 | 0.00 | 100 | 950.0 |
| 20260505174904 | 68 | 181 | 4.0 | 15.0 | 0.00 | 0.00 | 0.00 | 100 | 950.0 |
| 20260505174801 | 68 | 171 | 3.0 | 15.0 | 0.00 | 0.00 | 0.00 | 100 | 950.0 |
| 20260505174559 | 68 | 176 | 3.0 | 10.0 | 0.00 | 0.00 | 0.00 | 100 | 950.0 |
| 20260505174356 | 68 | 185 | 4.0 | 10.0 | 0.00 | 0.00 | 0.00 | 100 | 949.8 |
| 20260505174255 | 68 | 189 | 4.0 | 13.0 | 0.00 | 0.00 | 0.00 | 100 | 949.9 |
| 20260505174152 | 68 | 187 | 5.0 | 13.0 | 0.00 | 0.00 | 0.00 | 100 | 949.8 |
| 20260505173950 | 69 | 180 | 4.0 | 17.0 | 0.00 | 0.00 | 0.00 | 100 | 949.9 |
| 20260505173747 | 69 | 173 | 5.0 | 19.0 | 0.00 | 0.00 | 0.00 | 100 | 949.9 |
| 20260505173647 | 69 | 177 | 5.0 | 19.0 | 0.00 | 0.00 | 0.00 | 100 | 950.0 |
| 20260505173544 | 69 | 183 | 4.0 | 19.0 | 0.00 | 0.00 | 0.00 | 100 | 949.8 |
| 20260505173341 | 69 | 187 | 3.0 | 13.0 | 0.00 | 0.00 | 0.00 | 100 | 949.9 |
| 20260505173138 | 69 | 177 | 4.0 | 13.0 | 0.00 | 0.00 | 0.00 | 100 | 949.8 |
| 20260505173038 | 69 | 177 | 4.0 | 13.0 | 0.00 | 0.00 | 0.00 | 100 | 949.9 |
| 20260505172936 | 69 | 186 | 3.0 | 13.0 | 0.00 | 0.00 | 0.00 | 100 | 949.8 |
| 20260505172732 | 69 | 190 | 3.0 | 13.0 | 0.00 | 0.00 | 0.00 | 100 | 949.8 |
| 20260505172530 | 69 | 208 | 3.0 | 10.0 | 0.00 | 0.00 | 0.00 | 100 | 949.8 |
| 20260505172429 | 69 | 213 | 2.0 | 10.0 | 0.00 | 0.00 | 0.00 | 100 | 949.8 |
| 20260505172327 | 69 | 225 | 2.0 | 9.0 | 0.00 | 0.00 | 0.00 | 100 | 949.8 |
| 20260505172124 | 69 | 215 | 2.0 | 12.0 | 0.00 | 0.00 | 0.00 | 100 | 950.0 |
| 20260505171921 | 69 | 176 | 4.0 | 13.0 | 0.00 | 0.00 | 0.00 | 100 | 949.8 |
| 20260505171820 | 69 | 172 | 4.0 | 13.0 | 0.00 | 0.00 | 0.00 | 100 | 949.8 |
| 20260505171718 | 69 | 172 | 4.0 | 13.0 | 0.00 | 0.00 | 0.00 | 100 | 949.7 |
| 20260505171515 | 70 | 188 | 3.0 | 11.0 | 0.00 | 0.00 | 0.00 | 100 | 949.8 |
| 20260505171311 | 70 | 187 | 2.0 | 10.0 | 0.00 | 0.00 | 0.00 | 100 | 949.8 |
| 20260505171210 | 70 | 181 | 2.0 | 10.0 | 0.00 | 0.00 | 0.00 | 100 | 949.8 |
| 20260505171108 | 70 | 192 | 2.0 | 6.0 | 0.00 | 0.00 | 0.00 | 100 | 949.8 |
| 20260505170906 | 70 | 176 | 3.0 | 11.0 | 0.00 | 0.00 | 0.00 | 100 | 949.8 |
| 20260505170703 | 71 | 174 | 4.0 | 15.0 | 0.00 | 0.00 | 0.00 | 100 | 949.8 |
| 20260505170602 | 71 | 172 | 4.0 | 15.0 | 0.00 | 0.00 | 0.00 | 100 | 949.7 |
| 20260505170500 | 71 | 180 | 4.0 | 15.0 | 0.00 | 0.00 | 0.00 | 100 | 949.8 |
| 20260505170257 | 71 | 178 | 4.0 | 15.0 | 0.00 | 0.00 | 0.00 | 100 | 949.7 |
| 20260505170053 | 71 | 190 | 3.0 | 12.0 | 0.00 | 0.00 | 0.00 | 100 | 949.9 |
| 20260505165953 | 71 | 194 | 3.0 | 15.0 | 0.00 | 0.00 | 0.00 | 100 | 949.8 |
| 20260505165850 | 71 | 173 | 3.0 | 15.0 | 0.00 | 0.00 | 0.00 | 100 | 949.8 |
| 20260505165647 | 71 | 166 | 6.0 | 15.0 | 0.00 | 0.00 | 0.00 | 100 | 949.7 |
| 20260505165444 | 71 | 168 | 6.0 | 15.0 | 0.00 | 0.00 | 0.00 | 100 | 949.8 |
| 20260505165344 | 71 | 171 | 6.0 | 16.0 | 0.00 | 0.00 | 0.00 | 100 | 949.7 |
| 20260505165242 | 72 | 178 | 5.0 | 16.0 | 0.00 | 0.00 | 0.00 | 100 | 949.8 |
| 20260505165038 | 72 | 194 | 3.0 | 16.0 | 0.00 | 0.00 | 0.00 | 100 | 949.7 |
| 20260505164835 | 72 | 217 | 4.0 | 11.0 | 0.00 | 0.00 | 0.00 | 100 | 949.8 |
| 20260505164734 | 72 | 203 | 3.0 | 13.0 | 0.00 | 0.00 | 0.00 | 100 | 949.7 |
| 20260505164632 | 72 | 198 | 3.0 | 13.0 | 0.00 | 0.00 | 0.00 | 100 | 949.7 |
| 20260505164429 | 72 | 183 | 4.0 | 16.0 | 0.00 | 0.00 | 0.00 | 100 | 949.7 |
| 20260505164226 | 72 | 182 | 4.0 | 16.0 | 0.00 | 0.00 | 0.00 | 100 | 949.7 |
| 20260505164126 | 72 | 184 | 4.0 | 16.0 | 0.00 | 0.00 | 0.00 | 100 | 949.7 |
| 20260505164023 | 72 | 185 | 4.0 | 18.0 | 0.00 | 0.00 | 0.00 | 100 | 949.7 |
| 20260505163820 | 72 | 177 | 6.0 | 18.0 | 0.00 | 0.00 | 0.00 | 100 | 949.8 |
| 20260505163618 | 72 | 183 | 6.0 | 18.0 | 0.00 | 0.00 | 0.00 | 100 | 949.6 |
| 20260505163517 | 72 | 190 | 5.0 | 13.0 | 0.00 | 0.00 | 0.00 | 100 | 949.7 |
| 20260505163415 | 73 | 193 | 4.0 | 13.0 | 0.00 | 0.00 | 0.00 | 100 | 949.7 |
| 20260505163212 | 73 | 194 | 3.0 | 11.0 | 0.00 | 0.00 | 0.00 | 100 | 949.6 |
| 20260505163009 | 73 | 185 | 3.0 | 14.0 | 0.00 | 0.00 | 0.00 | 100 | 949.8 |
| 20260505162907 | 73 | 184 | 3.0 | 14.0 | 0.00 | 0.00 | 0.00 | 100 | 949.9 |
| 20260505162805 | 73 | 197 | 4.0 | 14.0 | 0.00 | 0.00 | 0.00 | 100 | 949.7 |
| 20260505162549 | 72 | 188 | 4.0 | 16.0 | 0.00 | 0.00 | 0.00 | 100 | 949.6 |
| 20260505162346 | 72 | 179 | 4.0 | 16.0 | 0.00 | 0.00 | 0.00 | 100 | 949.7 |
| 20260505162245 | 72 | 180 | 4.0 | 16.0 | 0.00 | 0.00 | 0.00 | 100 | 949.7 |
| 20260505162143 | 72 | 176 | 4.0 | 16.0 | 0.00 | 0.00 | 0.00 | 100 | 949.6 |
| 20260505161940 | 72 | 168 | 5.0 | 14.0 | 0.00 | 0.00 | 0.00 | 100 | 949.8 |
| 20260505161737 | 72 | 166 | 5.0 | 14.0 | 0.00 | 0.00 | 0.00 | 100 | 949.6 |
| 20260505161637 | 72 | 166 | 5.0 | 14.0 | 0.00 | 0.00 | 0.00 | 100 | 949.7 |
| 20260505161534 | 72 | 163 | 5.0 | 17.0 | 0.00 | 0.00 | 0.00 | 100 | 949.7 |
| 20260505161331 | 72 | 162 | 5.0 | 17.0 | 0.00 | 0.00 | 0.00 | 100 | 949.7 |
| 20260505161128 | 72 | 170 | 2.0 | 10.0 | 0.00 | 0.00 | 0.00 | 100 | 949.7 |
| 20260505161027 | 73 | 183 | 2.0 | 7.0 | 0.00 | 0.00 | 0.00 | 100 | 949.8 |
| 20260505160925 | 73 | 174 | 2.0 | 7.0 | 0.00 | 0.00 | 0.00 | 100 | 949.6 |
| 20260505160721 | 73 | 194 | 3.0 | 14.0 | 0.00 | 0.00 | 0.00 | 100 | 949.7 |
| 20260505160518 | 72 | 193 | 4.0 | 14.0 | 0.00 | 0.00 | 0.00 | 100 | 949.6 |
| 20260505160417 | 72 | 191 | 4.0 | 14.0 | 0.00 | 0.00 | 0.00 | 100 | 949.6 |
| 20260505160315 | 72 | 184 | 4.0 | 16.0 | 0.00 | 0.00 | 0.00 | 100 | 949.5 |
| 20260505160111 | 72 | 185 | 4.0 | 16.0 | 0.00 | 0.00 | 0.00 | 100 | 949.6 |
| 20260505153329 | 73 | 197 | 5.0 | 22.0 | 0.00 | 0.00 | 0.00 | 100 | 949.5 |
| 20260505153227 | 73 | 189 | 5.0 | 22.0 | 0.00 | 0.00 | 0.00 | 100 | 949.2 |
| 20260505153024 | 74 | 191 | 4.0 | 22.0 | 0.00 | 0.00 | 0.00 | 100 | 949.4 |
| 20260505152821 | 74 | 200 | 4.0 | 15.0 | 0.00 | 0.00 | 0.00 | 100 | 949.5 |
| 20260505152720 | 74 | 198 | 4.0 | 15.0 | 0.00 | 0.00 | 0.00 | 100 | 949.7 |
| 20260505152617 | 74 | 193 | 4.0 | 15.0 | 0.00 | 0.00 | 0.00 | 100 | 949.6 |
| 20260505152414 | 74 | 184 | 5.0 | 21.0 | 0.00 | 0.00 | 0.00 | 100 | 949.5 |
| 20260505152211 | 74 | 191 | 4.0 | 21.0 | 0.00 | 0.00 | 0.00 | 100 | 949.6 |
| 20260505152111 | 74 | 216 | 4.0 | 21.0 | 0.00 | 0.00 | 0.00 | 100 | 949.4 |
| 20260505152008 | 75 | 238 | 3.0 | 12.0 | 0.00 | 0.00 | 0.00 | 100 | 949.7 |
| 20260505151805 | 75 | 221 | 3.0 | 12.0 | 0.00 | 0.00 | 0.00 | 100 | 949.6 |
| 20260505151603 | 75 | 214 | 3.0 | 14.0 | 0.00 | 0.00 | 0.00 | 100 | 949.5 |
| 20260505151503 | 75 | 210 | 3.0 | 20.0 | 0.00 | 0.00 | 0.00 | 100 | 949.5 |
| 20260505151401 | 75 | 195 | 4.0 | 22.0 | 0.00 | 0.00 | 0.00 | 100 | 949.7 |
| 20260505151158 | 75 | 197 | 4.0 | 22.0 | 0.00 | 0.00 | 0.00 | 100 | 949.5 |
| 20260505150955 | 75 | 203 | 4.0 | 19.0 | 0.00 | 0.00 | 0.00 | 100 | 949.6 |
| 20260505150855 | 75 | 197 | 4.0 | 19.0 | 0.00 | 0.00 | 0.00 | 100 | 949.6 |
| 20260505150753 | 75 | 196 | 5.0 | 19.0 | 0.00 | 0.00 | 0.00 | 100 | 949.5 |
| 20260505150550 | 75 | 195 | 5.0 | 22.0 | 0.00 | 0.00 | 0.00 | 100 | 949.5 |
| 20260505150346 | 75 | 197 | 5.0 | 22.0 | 0.00 | 0.00 | 0.00 | 100 | 949.6 |
| 20260505150246 | 75 | 193 | 7.0 | 28.0 | 0.00 | 0.00 | 0.00 | 100 | 949.6 |
| 20260505150143 | 75 | 186 | 7.0 | 28.0 | 0.00 | 0.00 | 0.00 | 100 | 949.6 |
| 20260505140620 | 74 | 206 | 4.0 | 15.0 | 0.00 | 0.00 | 0.00 | 100 | 950.1 |
| 20260505140417 | 74 | 187 | 4.0 | 15.0 | 0.00 | 0.00 | 0.00 | 100 | 950.0 |
| 20260505140214 | 74 | 183 | 4.0 | 21.0 | 0.00 | 0.00 | 0.00 | 100 | 950.0 |
| 20260505140114 | 74 | 184 | 5.0 | 21.0 | 0.00 | 0.00 | 0.00 | 100 | 949.9 |
| 20260505130236 | 76 | 216 | 3.0 | 21.0 | 0.00 | 0.00 | 0.00 | 100 | 950.4 |
| 20260505125016 | 76 | 191 | 6.0 | 28.0 | 0.00 | 0.00 | 0.00 | 100 | 950.2 |
| 20260505124813 | 77 | 193 | 6.0 | 28.0 | 0.00 | 0.00 | 0.00 | 100 | 950.4 |
| 20260505124712 | 76 | 191 | 5.0 | 18.0 | 0.00 | 0.00 | 0.00 | 100 | 950.3 |
| 20260505124610 | 76 | 187 | 5.0 | 22.0 | 0.00 | 0.00 | 0.00 | 100 | 950.5 |
| 20260505124407 | 76 | 168 | 10.0 | 34.0 | 0.00 | 0.00 | 0.00 | 100 | 950.6 |
| 20260505124204 | 74 | 166 | 13.0 | 34.0 | 0.00 | 0.00 | 0.00 | 100 | 950.4 |
| 20260505124104 | 75 | 165 | 12.0 | 34.0 | 0.00 | 0.00 | 0.00 | 100 | 950.3 |
| 20260505124001 | 75 | 167 | 10.0 | 26.0 | 0.00 | 0.00 | 0.00 | 100 | 950.6 |
| 20260505123758 | 75 | 167 | 10.0 | 26.0 | 0.00 | 0.00 | 0.00 | 100 | 950.4 |
| 20260505123555 | 76 | 166 | 9.0 | 23.0 | 0.00 | 0.00 | 0.00 | 100 | 950.5 |
| 20260505123454 | 75 | 167 | 9.0 | 24.0 | 0.00 | 0.00 | 0.00 | 100 | 950.5 |
| 20260505123352 | 75 | 168 | 8.0 | 27.0 | 0.00 | 0.00 | 0.00 | 100 | 950.5 |
| 20260505123148 | 75 | 169 | 8.0 | 27.0 | 0.00 | 0.00 | 0.00 | 100 | 950.5 |
| 20260505122945 | 74 | 167 | 6.0 | 15.0 | 0.00 | 0.00 | 0.00 | 100 | 950.4 |
| 20260505122845 | 74 | 170 | 5.0 | 14.0 | 0.00 | 0.00 | 0.00 | 100 | 950.5 |
| 20260505122742 | 74 | 179 | 5.0 | 14.0 | 0.00 | 0.00 | 0.00 | 100 | 950.6 |
| 20260505122539 | 73 | 175 | 5.0 | 23.0 | 0.00 | 0.00 | 0.00 | 100 | 950.6 |
| 20260505122336 | 73 | 170 | 7.0 | 23.0 | 0.00 | 0.00 | 0.00 | 100 | 950.7 |
| 20260505122235 | 73 | 169 | 7.0 | 23.0 | 0.00 | 0.00 | 0.00 | 100 | 950.6 |
| 20260505122132 | 73 | 173 | 6.0 | 23.0 | 0.00 | 0.00 | 0.00 | 100 | 950.6 |
| 20260505121930 | 73 | 183 | 4.0 | 15.0 | 0.00 | 0.00 | 0.00 | 100 | 950.7 |
| 20260505121727 | 73 | 196 | 4.0 | 14.0 | 0.00 | 0.00 | 0.00 | 100 | 950.7 |
| 20260505121626 | 73 | 200 | 4.0 | 14.0 | 0.00 | 0.00 | 0.00 | 100 | 950.8 |
| 20260505121524 | 73 | 208 | 4.0 | 14.0 | 0.00 | 0.00 | 0.00 | 100 | 950.8 |
| 20260505121321 | 73 | 187 | 5.0 | 13.0 | 0.00 | 0.00 | 0.00 | 100 | 950.7 |
| 20260505121118 | 73 | 183 | 5.0 | 14.0 | 0.00 | 0.00 | 0.00 | 100 | 950.9 |
| 20260505121017 | 73 | 171 | 4.0 | 14.0 | 0.00 | 0.00 | 0.00 | 100 | 950.9 |
| 20260505120914 | 73 | 181 | 4.0 | 17.0 | 0.00 | 0.00 | 0.00 | 100 | 950.8 |
| 20260505120711 | 72 | 172 | 5.0 | 18.0 | 0.00 | 0.00 | 0.00 | 100 | 950.8 |
| 20260505120508 | 72 | 168 | 6.0 | 18.0 | 0.00 | 0.00 | 0.00 | 100 | 950.9 |
| 20260505120407 | 72 | 169 | 7.0 | 19.0 | 0.00 | 0.00 | 0.00 | 100 | 950.8 |
| 20260505120305 | 72 | 170 | 7.0 | 19.0 | 0.00 | 0.00 | 0.00 | 100 | 951.0 |
| 20260505115859 | 72 | 172 | 8.0 | 25.0 | 0.00 | 0.00 | 0.00 | 100 | 950.9 |
| 20260505115759 | 72 | 173 | 9.0 | 25.0 | 0.00 | 0.00 | 0.00 | 100 | 951.1 |
| 20260505115656 | 72 | 170 | 9.0 | 25.0 | 0.00 | 0.00 | 0.00 | 100 | 951.0 |
| 20260505115454 | 72 | 170 | 7.0 | 21.0 | 0.00 | 0.00 | 0.00 | 100 | 951.0 |
| 20260505115250 | 73 | 199 | 4.0 | 13.0 | 0.00 | 0.00 | 0.00 | 100 | 951.1 |
| 20260505115150 | 72 | 218 | 3.0 | 13.0 | 0.00 | 0.00 | 0.00 | 100 | 950.9 |
| 20260505115048 | 72 | 214 | 3.0 | 16.0 | 0.00 | 0.00 | 0.00 | 100 | 950.9 |
| 20260505114845 | 72 | 216 | 3.0 | 16.0 | 0.00 | 0.00 | 0.00 | 100 | 951.1 |
| 20260505114642 | 73 | 212 | 3.0 | 12.0 | 0.00 | 0.00 | 0.00 | 100 | 951.0 |
| 20260505114541 | 73 | 203 | 3.0 | 15.0 | 0.00 | 0.00 | 0.00 | 100 | 951.1 |
| 20260505114439 | 73 | 209 | 3.0 | 15.0 | 0.00 | 0.00 | 0.00 | 100 | 951.1 |
| 20260505114235 | 73 | 231 | 3.0 | 15.0 | 0.00 | 0.00 | 0.00 | 100 | 951.1 |
| 20260505114033 | 73 | 226 | 4.0 | 14.0 | 0.00 | 0.00 | 0.00 | 100 | 951.2 |
| 20260505113932 | 73 | 212 | 4.0 | 17.0 | 0.00 | 0.00 | 0.00 | 100 | 951.1 |
| 20260505113829 | 73 | 212 | 5.0 | 17.0 | 0.00 | 0.00 | 0.00 | 100 | 951.1 |
| 20260505113626 | 73 | 202 | 4.0 | 17.0 | 0.00 | 0.00 | 0.00 | 100 | 951.0 |
| 20260505113423 | 74 | 193 | 4.0 | 17.0 | 0.00 | 0.00 | 0.00 | 100 | 950.9 |
| 20260505113322 | 74 | 182 | 5.0 | 17.0 | 0.00 | 0.00 | 0.00 | 100 | 951.1 |
| 20260505113220 | 74 | 178 | 4.0 | 17.0 | 0.00 | 0.00 | 0.00 | 100 | 951.0 |
| 20260505113017 | 73 | 192 | 3.0 | 14.0 | 0.00 | 0.00 | 0.00 | 100 | 951.2 |
| 20260505112814 | 73 | 216 | 3.0 | 14.0 | 0.00 | 0.00 | 0.00 | 100 | 951.2 |
| 20260505112713 | 73 | 210 | 4.0 | 18.0 | 0.00 | 0.00 | 0.00 | 100 | 951.2 |
| 20260505112611 | 73 | 197 | 5.0 | 18.0 | 0.00 | 0.00 | 0.00 | 100 | 951.1 |
| 20260505112408 | 73 | 194 | 5.0 | 18.0 | 0.00 | 0.00 | 0.00 | 100 | 951.1 |
| 20260505112205 | 73 | 203 | 3.0 | 15.0 | 0.00 | 0.00 | 0.00 | 100 | 951.2 |
| 20260505112103 | 73 | 213 | 3.0 | 15.0 | 0.00 | 0.00 | 0.00 | 100 | 951.2 |
| 20260505112001 | 73 | 216 | 3.0 | 13.0 | 0.00 | 0.00 | 0.00 | 100 | 951.3 |
| 20260505111758 | 73 | 188 | 5.0 | 20.0 | 0.00 | 0.00 | 0.00 | 100 | 951.3 |
| 20260505111555 | 73 | 178 | 4.0 | 20.0 | 0.00 | 0.00 | 0.00 | 100 | 951.1 |
| 20260505111454 | 73 | 183 | 4.0 | 18.0 | 0.00 | 0.00 | 0.00 | 100 | 951.1 |
| 20260505111352 | 74 | 216 | 3.0 | 13.0 | 0.00 | 0.00 | 0.00 | 100 | 951.4 |
| 20260505111149 | 74 | 221 | 2.0 | 13.0 | 0.00 | 0.00 | 0.00 | 100 | 951.4 |
| 20260505110946 | 74 | 182 | 4.0 | 12.0 | 0.00 | 0.00 | 0.00 | 100 | 951.3 |
| 20260505110845 | 75 | 176 | 4.0 | 20.0 | 0.00 | 0.00 | 0.00 | 100 | 951.5 |
| 20260505110730 | 75 | 176 | 4.0 | 20.0 | 0.00 | 0.00 | 0.00 | 100 | 951.3 |
| 20260505110527 | 75 | 188 | 4.0 | 20.0 | 0.00 | 0.00 | 0.00 | 100 | 951.3 |
| 20260505110324 | 75 | 183 | 4.0 | 20.0 | 0.00 | 0.00 | 0.00 | 100 | 951.4 |
| 20260505110223 | 75 | 181 | 4.0 | 20.0 | 0.00 | 0.00 | 0.00 | 100 | 951.2 |
| 20260505110120 | 75 | 179 | 3.0 | 15.0 | 0.00 | 0.00 | 0.00 | 100 | 951.3 |
| 20260505102222 | 74 | 176 | 4.0 | 22.0 | 0.00 | 0.00 | 0.00 | 100 | 951.3 |
| 20260505102019 | 73 | 173 | 4.0 | 32.0 | 0.00 | 0.00 | 0.00 | 100 | 951.4 |
| 20260505101918 | 73 | 169 | 9.0 | 32.0 | 0.00 | 0.00 | 0.00 | 100 | 951.5 |
| 20260505101815 | 73 | 168 | 10.0 | 32.0 | 0.00 | 0.00 | 0.00 | 100 | 951.5 |
| 20260505101612 | 73 | 164 | 11.0 | 32.0 | 0.00 | 0.00 | 0.00 | 100 | 951.3 |
| 20260505101409 | 73 | 162 | 14.0 | 31.0 | 0.00 | 0.00 | 0.00 | 100 | 951.4 |
| 20260505101308 | 73 | 161 | 14.0 | 31.0 | 0.00 | 0.00 | 0.00 | 100 | 951.4 |
| 20260505101206 | 72 | 161 | 12.0 | 31.0 | 0.00 | 0.00 | 0.00 | 100 | 951.2 |
| 20260505101002 | 74 | 165 | 9.0 | 30.0 | 0.00 | 0.00 | 0.00 | 100 | 951.4 |
| 20260505100759 | 73 | 165 | 11.0 | 30.0 | 0.00 | 0.00 | 0.00 | 100 | 951.4 |
| 20260505100658 | 73 | 164 | 11.0 | 30.0 | 0.00 | 0.00 | 0.00 | 100 | 951.6 |
| 20260505100556 | 73 | 165 | 11.0 | 29.0 | 0.00 | 0.00 | 0.00 | 100 | 951.5 |
| 20260505100354 | 74 | 172 | 8.0 | 20.0 | 0.00 | 0.00 | 0.00 | 100 | 951.4 |
| 20260505100151 | 74 | 231 | 4.0 | 17.0 | 0.00 | 0.00 | 0.00 | 100 | 951.5 |
| 20260505100051 | 74 | 236 | 4.0 | 17.0 | 0.00 | 0.00 | 0.00 | 100 | 951.4 |
| 20260505095948 | 74 | 229 | 3.0 | 11.0 | 0.00 | 0.00 | 0.00 | 100 | 951.6 |
| 20260505095745 | 74 | 220 | 3.0 | 12.0 | 0.00 | 0.00 | 0.00 | 100 | 951.4 |
| 20260505095542 | 73 | 202 | 3.0 | 16.0 | 0.00 | 0.00 | 0.00 | 100 | 951.7 |
| 20260505095441 | 73 | 197 | 4.0 | 16.0 | 0.00 | 0.00 | 0.00 | 100 | 951.5 |
| 20260505095338 | 74 | 197 | 4.0 | 16.0 | 0.00 | 0.00 | 0.00 | 100 | 951.7 |
| 20260505095135 | 74 | 203 | 3.0 | 16.0 | 0.00 | 0.00 | 0.00 | 100 | 951.6 |
| 20260505094932 | 74 | 191 | 4.0 | 18.0 | 0.00 | 0.00 | 0.00 | 100 | 951.4 |
| 20260505094832 | 74 | 182 | 4.0 | 19.0 | 0.00 | 0.00 | 0.00 | 100 | 951.6 |
| 20260505094729 | 74 | 178 | 5.0 | 19.0 | 0.00 | 0.00 | 0.00 | 100 | 951.7 |
| 20260505094526 | 73 | 178 | 5.0 | 19.0 | 0.00 | 0.00 | 0.00 | 100 | 951.6 |
| 20260505094323 | 74 | 175 | 6.0 | 24.0 | 0.00 | 0.00 | 0.00 | 100 | 951.6 |
| 20260505094223 | 73 | 168 | 6.0 | 24.0 | 0.00 | 0.00 | 0.00 | 100 | 951.7 |
| 20260505094120 | 73 | 169 | 7.0 | 24.0 | 0.00 | 0.00 | 0.00 | 100 | 951.4 |
| 20260505093917 | 74 | 176 | 5.0 | 18.0 | 0.00 | 0.00 | 0.00 | 100 | 951.9 |
| 20260505093714 | 74 | 175 | 5.0 | 24.0 | 0.00 | 0.00 | 0.00 | 100 | 951.5 |
| 20260505093614 | 73 | 169 | 10.0 | 24.0 | 0.00 | 0.00 | 0.00 | 100 | 951.7 |
| 20260505093511 | 73 | 167 | 11.0 | 24.0 | 0.00 | 0.00 | 0.00 | 100 | 951.7 |
| 20260505093309 | 73 | 164 | 13.0 | 28.0 | 0.00 | 0.00 | 0.00 | 100 | 951.5 |
| 20260505093105 | 72 | 164 | 11.0 | 28.0 | 0.00 | 0.00 | 0.00 | 100 | 951.5 |
| 20260505093005 | 73 | 169 | 8.0 | 21.0 | 0.00 | 0.00 | 0.00 | 100 | 951.5 |
| 20260505092903 | 73 | 174 | 6.0 | 21.0 | 0.00 | 0.00 | 0.00 | 100 | 951.7 |
| 20260505092700 | 73 | 184 | 5.0 | 16.0 | 0.00 | 0.00 | 0.00 | 100 | 951.5 |
| 20260505092456 | 73 | 169 | 8.0 | 22.0 | 0.00 | 0.00 | 0.00 | 100 | 951.7 |
| 20260505092355 | 73 | 168 | 9.0 | 22.0 | 0.00 | 0.00 | 0.00 | 100 | 951.6 |
| 20260505092253 | 73 | 166 | 8.0 | 22.0 | 0.00 | 0.00 | 0.00 | 100 | 951.5 |
| 20260505092049 | 73 | 171 | 7.0 | 22.0 | 0.00 | 0.00 | 0.00 | 100 | 951.6 |
| 20260505091846 | 75 | 182 | 4.0 | 18.0 | 0.00 | 0.00 | 0.00 | 100 | 951.8 |
| 20260505091746 | 74 | 189 | 3.0 | 13.0 | 0.00 | 0.00 | 0.00 | 100 | 951.8 |
| 20260505091644 | 74 | 187 | 2.0 | 13.0 | 0.00 | 0.00 | 0.00 | 100 | 951.8 |
| 20260505091440 | 74 | 187 | 3.0 | 16.0 | 0.00 | 0.00 | 0.00 | 100 | 951.8 |
| 20260505091237 | 73 | 204 | 4.0 | 16.0 | 0.00 | 0.00 | 0.00 | 100 | 951.9 |
| 20260505091136 | 73 | 215 | 4.0 | 16.0 | 0.00 | 0.00 | 0.00 | 100 | 951.8 |
| 20260505091034 | 73 | 198 | 4.0 | 16.0 | 0.00 | 0.00 | 0.00 | 100 | 951.7 |
| 20260505090830 | 73 | 196 | 4.0 | 16.0 | 0.00 | 0.00 | 0.00 | 100 | 951.9 |
| 20260505090627 | 73 | 214 | 3.0 | 12.0 | 0.00 | 0.00 | 0.00 | 100 | 951.8 |
| 20260505090527 | 73 | 208 | 3.0 | 12.0 | 0.00 | 0.00 | 0.00 | 100 | 951.7 |
| 20260505090424 | 73 | 203 | 3.0 | 10.0 | 0.00 | 0.00 | 0.00 | 100 | 951.8 |
| 20260505090222 | 73 | 178 | 4.0 | 17.0 | 0.00 | 0.00 | 0.00 | 100 | 951.9 |
| 20260505090019 | 72 | 168 | 6.0 | 30.0 | 0.00 | 0.00 | 0.00 | 100 | 951.8 |
| 20260505085919 | 72 | 170 | 6.0 | 30.0 | 0.00 | 0.00 | 0.00 | 100 | 951.9 |
| 20260505085816 | 72 | 177 | 5.0 | 30.0 | 0.00 | 0.00 | 0.00 | 100 | 951.8 |
| 20260505085613 | 73 | 178 | 5.0 | 20.0 | 0.00 | 0.00 | 0.00 | 100 | 952.0 |
| 20260505085409 | 72 | 164 | 8.0 | 20.0 | 0.00 | 0.00 | 0.00 | 100 | 952.0 |
| 20260505085309 | 72 | 165 | 8.0 | 20.0 | 0.00 | 0.00 | 0.00 | 100 | 951.9 |
| 20260505085207 | 73 | 165 | 5.0 | 20.0 | 0.00 | 0.00 | 0.00 | 100 | 951.9 |
| 20260505085004 | 73 | 173 | 5.0 | 22.0 | 0.00 | 0.00 | 0.00 | 100 | 952.0 |
| 20260505084801 | 72 | 175 | 6.0 | 22.0 | 0.00 | 0.00 | 0.00 | 100 | 952.1 |
| 20260505084700 | 72 | 170 | 9.0 | 23.0 | 0.00 | 0.00 | 0.00 | 100 | 952.0 |
| 20260505084558 | 72 | 166 | 9.0 | 23.0 | 0.00 | 0.00 | 0.00 | 100 | 952.0 |
| 20260505084355 | 71 | 164 | 8.0 | 23.0 | 0.00 | 0.00 | 0.00 | 100 | 952.0 |
| 20260505084151 | 72 | 167 | 6.0 | 18.0 | 0.00 | 0.00 | 0.00 | 100 | 952.0 |
| 20260505084051 | 72 | 170 | 6.0 | 18.0 | 0.00 | 0.00 | 0.00 | 100 | 952.0 |
| 20260505083948 | 72 | 171 | 7.0 | 18.0 | 0.00 | 0.00 | 0.00 | 100 | 952.0 |
| 20260505083745 | 72 | 172 | 9.0 | 24.0 | 0.00 | 0.00 | 0.00 | 100 | 952.0 |
| 20260505083542 | 71 | 168 | 9.0 | 24.0 | 0.00 | 0.00 | 0.00 | 100 | 951.9 |
| 20260505083441 | 72 | 169 | 8.0 | 24.0 | 0.00 | 0.00 | 0.00 | 100 | 951.8 |
| 20260505083339 | 72 | 173 | 6.0 | 18.0 | 0.00 | 0.00 | 0.00 | 100 | 952.0 |
| 20260505083135 | 72 | 198 | 5.0 | 17.0 | 0.00 | 0.00 | 0.00 | 100 | 952.1 |
| 20260505082932 | 72 | 220 | 4.0 | 13.0 | 0.00 | 0.00 | 0.00 | 100 | 952.0 |
| 20260505082818 | 72 | 222 | 4.0 | 13.0 | 0.00 | 0.00 | 0.00 | 100 | 951.9 |
| 20260505082716 | 72 | 218 | 4.0 | 13.0 | 0.00 | 0.00 | 0.00 | 100 | 952.1 |
| 20260505082512 | 72 | 200 | 4.0 | 14.0 | 0.00 | 0.00 | 0.00 | 100 | 952.0 |
| 20260505082309 | 72 | 196 | 4.0 | 14.0 | 0.00 | 0.00 | 0.00 | 100 | 952.1 |
| 20260505082209 | 72 | 213 | 3.0 | 13.0 | 0.00 | 0.00 | 0.00 | 100 | 952.1 |
| 20260505082106 | 72 | 214 | 3.0 | 13.0 | 0.00 | 0.00 | 0.00 | 100 | 952.2 |
| 20260505081903 | 72 | 203 | 3.0 | 18.0 | 0.00 | 0.00 | 0.00 | 100 | 952.0 |
| 20260505081700 | 72 | 190 | 4.0 | 18.0 | 0.00 | 0.00 | 0.00 | 100 | 952.1 |
| 20260505081559 | 72 | 191 | 4.0 | 15.0 | 0.00 | 0.00 | 0.00 | 100 | 952.2 |
| 20260505081457 | 72 | 195 | 4.0 | 15.0 | 0.00 | 0.00 | 0.00 | 100 | 952.2 |
| 20260505081253 | 71 | 190 | 4.0 | 17.0 | 0.00 | 0.00 | 0.00 | 100 | 952.0 |
| 20260505081051 | 72 | 188 | 4.0 | 17.0 | 0.00 | 0.00 | 0.00 | 100 | 952.1 |
| 20260505080951 | 72 | 185 | 5.0 | 23.0 | 0.00 | 0.00 | 0.00 | 100 | 952.0 |
| 20260505080848 | 72 | 179 | 5.0 | 23.0 | 0.00 | 0.00 | 0.00 | 100 | 952.1 |
| 20260505080645 | 71 | 171 | 7.0 | 23.0 | 0.00 | 0.00 | 0.00 | 100 | 952.2 |
| 20260505080442 | 71 | 170 | 6.0 | 16.0 | 0.00 | 0.00 | 0.00 | 100 | 952.3 |
| 20260505080341 | 71 | 167 | 6.0 | 16.0 | 0.00 | 0.00 | 0.00 | 100 | 952.1 |
| 20260505080239 | 71 | 171 | 7.0 | 18.0 | 0.00 | 0.00 | 0.00 | 100 | 952.3 |
| 20260505080036 | 71 | 173 | 6.0 | 18.0 | 0.00 | 0.00 | 0.00 | 100 | 952.2 |
| 20260505075833 | 71 | 168 | 5.0 | 19.0 | 0.00 | 0.00 | 0.00 | 100 | 952.3 |
| 20260505075732 | 71 | 171 | 5.0 | 19.0 | 0.00 | 0.00 | 0.00 | 100 | 952.4 |
| 20260505075630 | 71 | 175 | 4.0 | 19.0 | 0.00 | 0.00 | 0.00 | 100 | 952.1 |
| 20260505075427 | 71 | 198 | 4.0 | 18.0 | 0.00 | 0.00 | 0.00 | 100 | 952.3 |
| 20260505075224 | 71 | 173 | 5.0 | 18.0 | 0.00 | 0.00 | 0.00 | 100 | 952.2 |
| 20260505075123 | 71 | 169 | 5.0 | 15.0 | 0.00 | 0.00 | 0.00 | 100 | 952.3 |
| 20260505075021 | 71 | 168 | 4.0 | 14.0 | 0.00 | 0.00 | 0.00 | 100 | 952.5 |
| 20260505074818 | 70 | 158 | 5.0 | 16.0 | 0.00 | 0.00 | 0.00 | 100 | 952.3 |
| 20260505074615 | 71 | 159 | 4.0 | 16.0 | 0.00 | 0.00 | 0.00 | 100 | 952.4 |
| 20260505074513 | 70 | 160 | 4.0 | 12.0 | 0.00 | 0.00 | 0.00 | 100 | 952.2 |
| 20260505074411 | 71 | 178 | 3.0 | 16.0 | 0.00 | 0.00 | 0.00 | 100 | 952.3 |
| 20260505074208 | 70 | 170 | 5.0 | 19.0 | 0.00 | 0.00 | 0.00 | 100 | 952.3 |
| 20260505074005 | 70 | 165 | 6.0 | 19.0 | 0.00 | 0.00 | 0.00 | 100 | 952.2 |
| 20260505073905 | 70 | 164 | 7.0 | 19.0 | 0.00 | 0.00 | 0.00 | 100 | 952.2 |
| 20260505073803 | 70 | 165 | 6.0 | 17.0 | 0.00 | 0.00 | 0.00 | 100 | 952.5 |
| 20260505073600 | 70 | 188 | 4.0 | 17.0 | 0.00 | 0.00 | 0.00 | 100 | 952.4 |
| 20260505073356 | 70 | 175 | 6.0 | 21.0 | 0.00 | 0.00 | 0.00 | 100 | 952.3 |
| 20260505073256 | 70 | 172 | 6.0 | 21.0 | 0.00 | 0.00 | 0.00 | 100 | 952.3 |
| 20260505073153 | 70 | 169 | 6.0 | 21.0 | 0.00 | 0.00 | 0.00 | 100 | 952.4 |
| 20260505072949 | 70 | 197 | 4.0 | 13.0 | 0.00 | 0.00 | 0.00 | 100 | 952.3 |
| 20260505072747 | 70 | 171 | 4.0 | 17.0 | 0.00 | 0.00 | 0.00 | 100 | 952.3 |
| 20260505072646 | 70 | 165 | 4.0 | 17.0 | 0.00 | 0.00 | 0.00 | 100 | 952.6 |
| 20260505072543 | 70 | 165 | 4.0 | 17.0 | 0.00 | 0.00 | 0.00 | 100 | 952.4 |
| 20260505072340 | 70 | 187 | 5.0 | 18.0 | 0.00 | 0.00 | 0.00 | 100 | 952.4 |
| 20260505072137 | 69 | 193 | 5.0 | 22.0 | 0.00 | 0.00 | 0.00 | 100 | 952.3 |
| 20260505072036 | 70 | 190 | 5.0 | 22.0 | 0.00 | 0.00 | 0.00 | 100 | 952.4 |
| 20260505071934 | 69 | 179 | 6.0 | 22.0 | 0.00 | 0.00 | 0.00 | 100 | 952.4 |
| 20260505071732 | 69 | 184 | 7.0 | 22.0 | 0.00 | 0.00 | 0.00 | 100 | 952.4 |
| 20260505071529 | 69 | 193 | 6.0 | 22.0 | 0.00 | 0.00 | 0.00 | 100 | 952.3 |
| 20260505071428 | 69 | 188 | 7.0 | 24.0 | 0.00 | 0.00 | 0.00 | 100 | 952.3 |
| 20260505071326 | 69 | 182 | 7.0 | 24.0 | 0.00 | 0.00 | 0.00 | 100 | 952.5 |
| 20260505071123 | 69 | 168 | 7.0 | 24.0 | 0.00 | 0.00 | 0.00 | 100 | 952.0 |
| 20260505070921 | 69 | 164 | 4.0 | 20.0 | 0.00 | 0.00 | 0.00 | 100 | 952.4 |
| 20260505070820 | 68 | 168 | 4.0 | 21.0 | 0.00 | 0.00 | 0.00 | 100 | 952.2 |
| 20260505070718 | 69 | 180 | 5.0 | 21.0 | 0.00 | 0.00 | 0.00 | 100 | 952.4 |
| 20260505070515 | 69 | 180 | 5.0 | 21.0 | 0.00 | 0.00 | 0.00 | 100 | 952.4 |
| 20260505070312 | 69 | 199 | 4.0 | 13.0 | 0.00 | 0.00 | 0.00 | 100 | 952.6 |
| 20260505070211 | 69 | 199 | 3.0 | 12.0 | 0.00 | 0.00 | 0.00 | 100 | 952.6 |
| 20260505070109 | 69 | 203 | 3.0 | 12.0 | 0.00 | 0.00 | 0.00 | 100 | 952.6 |
| 20260505065906 | 69 | 184 | 3.0 | 10.0 | 0.00 | 0.00 | 0.00 | 100 | 952.6 |
| 20260505065703 | 68 | 181 | 4.0 | 20.0 | 0.00 | 0.00 | 0.00 | 100 | 952.6 |
| 20260505065603 | 68 | 179 | 5.0 | 20.0 | 0.00 | 0.00 | 0.00 | 100 | 952.5 |
| 20260505065500 | 68 | 174 | 6.0 | 20.0 | 0.00 | 0.00 | 0.00 | 100 | 952.5 |
| 20260505065256 | 68 | 173 | 5.0 | 14.0 | 0.00 | 0.00 | 0.00 | 100 | 952.7 |
| 20260505065053 | 68 | 187 | 3.0 | 12.0 | 0.00 | 0.00 | 0.00 | 100 | 952.7 |
| 20260505064953 | 68 | 199 | 3.0 | 12.0 | 0.00 | 0.00 | 0.00 | 100 | 952.8 |
| 20260505064851 | 68 | 192 | 3.0 | 12.0 | 0.00 | 0.00 | 0.00 | 100 | 952.8 |
| 20260505064647 | 68 | 188 | 4.0 | 16.0 | 0.00 | 0.00 | 0.00 | 100 | 952.7 |
| 20260505064445 | 67 | 183 | 6.0 | 20.0 | 0.00 | 0.00 | 0.00 | 100 | 952.6 |
| 20260505064344 | 67 | 180 | 6.0 | 20.0 | 0.00 | 0.00 | 0.00 | 100 | 952.8 |
| 20260505064242 | 67 | 181 | 5.0 | 20.0 | 0.00 | 0.00 | 0.00 | 100 | 952.6 |
| 20260505064038 | 68 | 176 | 4.0 | 11.0 | 0.00 | 0.00 | 0.00 | 100 | 952.8 |
| 20260505063835 | 68 | 169 | 3.0 | 9.0 | 0.00 | 0.00 | 0.00 | 100 | 952.8 |
| 20260505063735 | 68 | 176 | 3.0 | 9.0 | 0.00 | 0.00 | 0.00 | 100 | 952.8 |
| 20260505063632 | 68 | 163 | 3.0 | 9.0 | 0.00 | 0.00 | 0.00 | 100 | 952.8 |
| 20260505063429 | 67 | 160 | 2.0 | 8.0 | 0.00 | 0.00 | 0.00 | 100 | 952.9 |
| 20260505063226 | 67 | 0 | 3.0 | 10.0 | 0.00 | 0.00 | 0.00 | 100 | 952.8 |
| 20260505063125 | 66 | 277 | 4.0 | 10.0 | 0.00 | 0.00 | 0.00 | 100 | 952.8 |
| 20260505063022 | 66 | 298 | 4.0 | 10.0 | 0.00 | 0.00 | 0.00 | 100 | 952.8 |
| 20260505062819 | 64 | 299 | 5.0 | 8.0 | 0.00 | 0.00 | 0.00 | 100 | 952.9 |
| 20260505062615 | 64 | 331 | 4.0 | 7.0 | 0.00 | 0.00 | 0.00 | 100 | 952.8 |
| 20260505062515 | 64 | 354 | 4.0 | 7.0 | 0.00 | 0.00 | 0.00 | 100 | 952.8 |
| 20260505062412 | 64 | 2 | 5.0 | 8.0 | 0.00 | 0.00 | 0.00 | 100 | 952.9 |
| 20260505062209 | 63 | 2 | 5.0 | 8.0 | 0.00 | 0.00 | 0.00 | 100 | 952.9 |
| 20260505062006 | 63 | 25 | 4.0 | 8.0 | 0.00 | 0.00 | 0.00 | 100 | 953.0 |
| 20260505061906 | 63 | 41 | 5.0 | 8.0 | 0.00 | 0.00 | 0.00 | 100 | 953.0 |
| 20260505061803 | 63 | 50 | 5.0 | 8.0 | 0.00 | 0.00 | 0.00 | 100 | 953.1 |
| 20260505061600 | 62 | 52 | 4.0 | 8.0 | 0.00 | 0.00 | 0.00 | 100 | 952.9 |
| 20260505061357 | 62 | 48 | 3.0 | 7.0 | 0.00 | 0.00 | 0.00 | 100 | 952.9 |
| 20260505061256 | 62 | 50 | 3.0 | 6.0 | 0.00 | 0.00 | 0.00 | 100 | 952.9 |
| 20260505061154 | 62 | 59 | 3.0 | 6.0 | 0.00 | 0.00 | 0.00 | 100 | 952.9 |
| 20260505060950 | 62 | 81 | 4.0 | 6.0 | 0.00 | 0.00 | 0.00 | 100 | 953.1 |
| 20260505060748 | 62 | 107 | 4.0 | 8.0 | 0.00 | 0.00 | 0.00 | 100 | 953.0 |
| 20260505060647 | 62 | 110 | 4.0 | 13.0 | 0.00 | 0.00 | 0.00 | 100 | 952.9 |
| 20260505060545 | 62 | 107 | 4.0 | 13.0 | 0.00 | 0.00 | 0.00 | 100 | 953.0 |
| 20260505060342 | 62 | 91 | 5.0 | 13.0 | 0.00 | 0.00 | 0.00 | 100 | 953.0 |
| 20260505060140 | 62 | 81 | 5.0 | 8.0 | 0.00 | 0.00 | 0.00 | 100 | 953.0 |
| 20260505060039 | 62 | 82 | 5.0 | 9.0 | 0.00 | 0.00 | 0.00 | 100 | 952.9 |
| 20260505055738 | 62 | 89 | 4.0 | 9.0 | 0.00 | 0.00 | 0.00 | 100 | 953.0 |
| 20260505055638 | 62 | 91 | 3.0 | 8.0 | 0.00 | 0.00 | 0.00 | 100 | 953.0 |
| 20260505055535 | 62 | 87 | 4.0 | 8.0 | 0.00 | 0.00 | 0.00 | 100 | 952.9 |
| 20260505055332 | 62 | 70 | 2.0 | 8.0 | 0.00 | 0.00 | 0.00 | 100 | 953.0 |
| 20260505055128 | 61 | 70 | 2.0 | 7.0 | 0.00 | 0.00 | 0.00 | 100 | 953.1 |
| 20260505055028 | 60 | 69 | 3.0 | 7.0 | 0.00 | 0.00 | 0.00 | 100 | 953.1 |
| 20260505054926 | 60 | 74 | 4.0 | 7.0 | 0.00 | 0.00 | 0.00 | 100 | 953.1 |
| 20260505054723 | 60 | 76 | 6.0 | 9.0 | 0.00 | 0.00 | 0.00 | 100 | 953.0 |
| 20260505054519 | 59 | 78 | 5.0 | 9.0 | 0.00 | 0.00 | 0.00 | 100 | 953.1 |
| 20260505054406 | 58 | 80 | 5.0 | 8.0 | 0.00 | 0.00 | 0.00 | 100 | 953.0 |
| 20260505054303 | 58 | 88 | 4.0 | 8.0 | 0.00 | 0.00 | 0.00 | 100 | 953.0 |
| 20260505054059 | 58 | 119 | 4.0 | 7.0 | 0.00 | 0.00 | 0.00 | 100 | 953.0 |
| 20260505053856 | 57 | 129 | 4.0 | 7.0 | 0.00 | 0.00 | 0.00 | 100 | 953.2 |
| 20260505053755 | 57 | 136 | 4.0 | 7.0 | 0.00 | 0.00 | 0.00 | 100 | 953.1 |
| 20260505053653 | 57 | 135 | 4.0 | 7.0 | 0.00 | 0.00 | 0.00 | 100 | 953.2 |
| 20260505053450 | 56 | 130 | 3.0 | 5.0 | 0.00 | 0.00 | 0.00 | 100 | 953.1 |
| 20260505053247 | 56 | 127 | 3.0 | 7.0 | 0.00 | 0.00 | 0.00 | 100 | 953.1 |
| 20260505053147 | 55 | 128 | 3.0 | 7.0 | 0.00 | 0.00 | 0.00 | 100 | 953.2 |
| 20260505053044 | 55 | 129 | 4.0 | 7.0 | 0.00 | 0.00 | 0.00 | 100 | 953.2 |
| 20260505052841 | 55 | 132 | 3.0 | 7.0 | 0.00 | 0.00 | 0.00 | 100 | 953.2 |
| 20260505052637 | 55 | 135 | 2.0 | 5.0 | 0.00 | 0.00 | 0.00 | 100 | 953.1 |
| 20260505052536 | 54 | 133 | 2.0 | 4.0 | 0.00 | 0.00 | 0.00 | 100 | 953.2 |
| 20260505052434 | 54 | 130 | 2.0 | 4.0 | 0.00 | 0.00 | 0.00 | 100 | 953.2 |
| 20260505052230 | 54 | 115 | 2.0 | 4.0 | 0.00 | 0.00 | 0.00 | 100 | 953.2 |
| 20260505052027 | 54 | 121 | 1.0 | 3.0 | 0.00 | 0.00 | 0.00 | 100 | 953.2 |
| 20260505051926 | 54 | 131 | 1.0 | 3.0 | 0.00 | 0.00 | 0.00 | 100 | 953.2 |
| 20260505051820 | 54 | 131 | 1.0 | 3.0 | 0.00 | 0.00 | 0.00 | 100 | 953.2 |
| 20260505051616 | 54 | 119 | 1.0 | 2.0 | 0.00 | 0.00 | 0.00 | 100 | 953.2 |
| 20260505051413 | 53 | 129 | 2.0 | 4.0 | 0.00 | 0.00 | 0.00 | 100 | 953.3 |
| 20260505051313 | 53 | 131 | 2.0 | 4.0 | 0.00 | 0.00 | 0.00 | 100 | 953.2 |
| 20260505051210 | 53 | 132 | 2.0 | 4.0 | 0.00 | 0.00 | 0.00 | 100 | 953.3 |
| 20260505051007 | 53 | 106 | 2.0 | 5.0 | 0.00 | 0.00 | 0.00 | 100 | 953.2 |
| 20260505050803 | 53 | 111 | 2.0 | 5.0 | 0.00 | 0.00 | 0.00 | 100 | 953.2 |
| 20260505050703 | 53 | 116 | 2.0 | 4.0 | 0.00 | 0.00 | 0.00 | 100 | 953.2 |
| 20260505050600 | 53 | 123 | 1.0 | 4.0 | 0.00 | 0.00 | 0.00 | 100 | 953.3 |
| 20260505050357 | 54 | 0 | 0.0 | 2.0 | 0.00 | 0.00 | 0.00 | 100 | 953.4 |
| 20260505050153 | 53 | 70 | 1.0 | 3.0 | 0.00 | 0.00 | 0.00 | 100 | 953.3 |
| 20260505041748 | 50 | 152 | 2.0 | 5.0 | 0.00 | 0.00 | 0.00 | 100 | 953.5 |
| 20260505041642 | 50 | 144 | 2.0 | 5.0 | 0.00 | 0.00 | 0.00 | 100 | 953.6 |
| 20260505041439 | 50 | 132 | 3.0 | 5.0 | 0.00 | 0.00 | 0.00 | 100 | 953.5 |
| 20260505041236 | 50 | 133 | 2.0 | 4.0 | 0.00 | 0.00 | 0.00 | 100 | 953.5 |
| 20260505041135 | 50 | 134 | 2.0 | 3.0 | 0.00 | 0.00 | 0.00 | 100 | 953.6 |
| 20260505041033 | 50 | 151 | 2.0 | 4.0 | 0.00 | 0.00 | 0.00 | 100 | 953.6 |
| 20260505040830 | 50 | 155 | 3.0 | 5.0 | 0.00 | 0.00 | 0.00 | 100 | 953.5 |
| 20260505040626 | 49 | 153 | 3.0 | 5.0 | 0.00 | 0.00 | 0.00 | 100 | 953.6 |
| 20260505040526 | 49 | 148 | 3.0 | 5.0 | 0.00 | 0.00 | 0.00 | 100 | 953.6 |
| 20260505040424 | 49 | 148 | 3.0 | 6.0 | 0.00 | 0.00 | 0.00 | 100 | 953.5 |
| 20260505040221 | 49 | 149 | 3.0 | 6.0 | 0.00 | 0.00 | 0.00 | 100 | 953.5 |
| 20260505040017 | 49 | 151 | 2.0 | 4.0 | 0.00 | 0.00 | 0.00 | 100 | 953.5 |
| 20260505035916 | 50 | 136 | 2.0 | 4.0 | 0.00 | 0.00 | 0.00 | 100 | 953.5 |
| 20260505035814 | 50 | 129 | 2.0 | 4.0 | 0.00 | 0.00 | 0.00 | 100 | 953.5 |
| 20260505035610 | 50 | 116 | 2.0 | 3.0 | 0.00 | 0.00 | 0.00 | 100 | 953.5 |
| 20260505035407 | 50 | 120 | 2.0 | 3.0 | 0.00 | 0.00 | 0.00 | 100 | 953.5 |
| 20260505035306 | 50 | 113 | 2.0 | 3.0 | 0.00 | 0.00 | 0.00 | 100 | 953.4 |
| 20260505035204 | 50 | 109 | 2.0 | 3.0 | 0.00 | 0.00 | 0.00 | 100 | 953.7 |
| 20260505035000 | 51 | 77 | 1.0 | 3.0 | 0.00 | 0.00 | 0.00 | 100 | 953.6 |
| 20260505034757 | 50 | 346 | 1.0 | 3.0 | 0.00 | 0.00 | 0.00 | 100 | 953.7 |
| 20260505034656 | 50 | 347 | 2.0 | 5.0 | 0.00 | 0.00 | 0.00 | 100 | 953.6 |
| 20260505034553 | 50 | 350 | 3.0 | 5.0 | 0.00 | 0.00 | 0.00 | 100 | 953.6 |
| 20260505034350 | 51 | 348 | 3.0 | 5.0 | 0.00 | 0.00 | 0.00 | 100 | 953.6 |
| 20260505034147 | 51 | 302 | 2.0 | 3.0 | 0.00 | 0.00 | 0.00 | 100 | 953.6 |
| 20260505034046 | 50 | 286 | 1.0 | 3.0 | 0.00 | 0.00 | 0.00 | 100 | 953.6 |
| 20260505033944 | 50 | 262 | 1.0 | 2.0 | 0.00 | 0.00 | 0.00 | 100 | 953.6 |
| 20260505033741 | 50 | 203 | 1.0 | 3.0 | 0.00 | 0.00 | 0.00 | 100 | 953.6 |
| 20260505033537 | 50 | 188 | 2.0 | 4.0 | 0.00 | 0.00 | 0.00 | 100 | 953.6 |
| 20260505033437 | 50 | 187 | 2.0 | 4.0 | 0.00 | 0.00 | 0.00 | 100 | 953.7 |
| 20260505033335 | 50 | 182 | 2.0 | 4.0 | 0.00 | 0.00 | 0.00 | 100 | 953.7 |
| 20260505033132 | 50 | 176 | 2.0 | 4.0 | 0.00 | 0.00 | 0.00 | 100 | 953.6 |
| 20260505032928 | 50 | 173 | 2.0 | 5.0 | 0.00 | 0.00 | 0.00 | 100 | 953.7 |
| 20260505032828 | 50 | 174 | 2.0 | 5.0 | 0.00 | 0.00 | 0.00 | 100 | 953.7 |
| 20260505032725 | 50 | 174 | 2.0 | 5.0 | 0.00 | 0.00 | 0.00 | 100 | 953.7 |
| 20260505032522 | 50 | 174 | 2.0 | 4.0 | 0.00 | 0.00 | 0.00 | 100 | 953.7 |
| 20260505032319 | 50 | 150 | 2.0 | 4.0 | 0.00 | 0.00 | 0.00 | 100 | 953.7 |
| 20260505032218 | 51 | 133 | 2.0 | 4.0 | 0.00 | 0.00 | 0.00 | 100 | 953.7 |
| 20260505032115 | 51 | 71 | 2.0 | 3.0 | 0.00 | 0.00 | 0.00 | 100 | 953.7 |
| 20260505031912 | 51 | 38 | 1.0 | 2.0 | 0.00 | 0.00 | 0.00 | 100 | 953.8 |
| 20260505031709 | 51 | 15 | 1.0 | 2.0 | 0.00 | 0.00 | 0.00 | 100 | 953.8 |
| 20260505031608 | 51 | 10 | 1.0 | 2.0 | 0.00 | 0.00 | 0.00 | 100 | 953.8 |
| 20260505031503 | 51 | 0 | 1.0 | 2.0 | 0.00 | 0.00 | 0.00 | 100 | 953.7 |
| 20260505031300 | 51 | 352 | 0.0 | 2.0 | 0.00 | 0.00 | 0.00 | 100 | 953.9 |
| 20260505031056 | 51 | 0 | 0.0 | 2.0 | 0.00 | 0.00 | 0.00 | 100 | 954.0 |
| 20260505030956 | 51 | 199 | 1.0 | 3.0 | 0.00 | 0.00 | 0.00 | 100 | 953.8 |
| 20260505030854 | 51 | 206 | 1.0 | 3.0 | 0.00 | 0.00 | 0.00 | 100 | 953.8 |
| 20260505030651 | 50 | 228 | 1.0 | 3.0 | 0.00 | 0.00 | 0.00 | 100 | 953.9 |
| 20260505030435 | 51 | 0 | 1.0 | 2.0 | 0.00 | 0.00 | 0.00 | 100 | 953.9 |
| 20260505030334 | 51 | 0 | 1.0 | 2.0 | 0.00 | 0.00 | 0.00 | 100 | 954.0 |
| 20260505030231 | 51 | 0 | 1.0 | 2.0 | 0.00 | 0.00 | 0.00 | 100 | 953.9 |
| 20260505030028 | 51 | 46 | 1.0 | 2.0 | 0.00 | 0.00 | 0.00 | 100 | 953.9 |
| 20260505025824 | 51 | 322 | 2.0 | 4.0 | 0.00 | 0.00 | 0.00 | 100 | 954.0 |
| 20260505025724 | 51 | 299 | 2.0 | 5.0 | 0.00 | 0.00 | 0.00 | 100 | 954.0 |